Wetterdaten: Dienstag, 11.04.2017
Datum Zeit Temp. A. Feuchte A. Luftdruck Regen Wind Richtung Richtung Sonnenschein ET UV Solar Taupunkt Windchill Windben Empfang
11.04.2017 00:00 13,6 C 66 % 1013,8 hPa 0,0 l/m 6,5 km/h (2 Bft) S-SW 202 0 min 0,000 mm 0,0 UV-I 0 W/m 7,4 C 13,6 C 8,0 km/h (2 Bft) 96,23 %
11.04.2017 00:02 13,6 C 66 % 1013,8 hPa 0,0 l/m 6,7 km/h (2 Bft) S-SW 209 0 min 0,000 mm 0,0 UV-I 0 W/m 7,4 C 13,4 C 9,7 km/h (2 Bft) 94,59 %
11.04.2017 00:04 13,6 C 66 % 1013,7 hPa 0,0 l/m 5,6 km/h (1 Bft) S-SW 211 0 min 0,000 mm 0,0 UV-I 0 W/m 7,4 C 13,6 C 9,7 km/h (2 Bft) 96,00 %
11.04.2017 00:06 13,6 C 66 % 1013,7 hPa 0,0 l/m 4,7 km/h (1 Bft) SW 215 0 min 0,000 mm 0,0 UV-I 0 W/m 7,4 C 13,6 C 6,4 km/h (2 Bft) 97,44 %
11.04.2017 00:08 13,4 C 67 % 1013,7 hPa 0,0 l/m 4,6 km/h (1 Bft) SW 215 0 min 0,000 mm 0,0 UV-I 0 W/m 7,4 C 13,4 C 6,4 km/h (2 Bft) 96,23 %
11.04.2017 00:10 13,4 C 67 % 1013,7 hPa 0,0 l/m 5,4 km/h (1 Bft) SW 215 0 min 0,000 mm 0,0 UV-I 0 W/m 7,4 C 13,4 C 8,0 km/h (2 Bft) 97,87 %
11.04.2017 00:12 13,3 C 67 % 1013,7 hPa 0,0 l/m 5,6 km/h (1 Bft) SW 214 0 min 0,000 mm 0,0 UV-I 0 W/m 7,3 C 13,3 C 8,0 km/h (2 Bft) 93,62 %
11.04.2017 00:14 13,2 C 68 % 1013,6 hPa 0,0 l/m 4,9 km/h (1 Bft) S-SW 213 0 min 0,000 mm 0,0 UV-I 0 W/m 7,4 C 13,2 C 6,4 km/h (2 Bft) 97,73 %
11.04.2017 00:16 13,1 C 68 % 1013,6 hPa 0,0 l/m 5,2 km/h (1 Bft) S-SW 213 0 min 0,000 mm 0,0 UV-I 0 W/m 7,3 C 13,1 C 8,0 km/h (2 Bft) 97,87 %
11.04.2017 00:18 13,1 C 69 % 1013,6 hPa 0,0 l/m 4,0 km/h (1 Bft) S-SW 213 0 min 0,000 mm 0,0 UV-I 0 W/m 7,5 C 13,1 C 6,4 km/h (2 Bft) 97,87 %
11.04.2017 00:20 13,0 C 68 % 1013,7 hPa 0,0 l/m 4,2 km/h (1 Bft) S-SW 213 0 min 0,000 mm 0,0 UV-I 0 W/m 7,2 C 13,0 C 6,4 km/h (2 Bft) 97,87 %
11.04.2017 00:22 13,0 C 68 % 1013,6 hPa 0,0 l/m 5,0 km/h (1 Bft) S-SW 213 0 min 0,000 mm 0,0 UV-I 0 W/m 7,2 C 13,0 C 6,4 km/h (2 Bft) 93,62 %
11.04.2017 00:24 13,0 C 68 % 1013,6 hPa 0,0 l/m 4,6 km/h (1 Bft) S-SW 213 0 min 0,000 mm 0,0 UV-I 0 W/m 7,2 C 13,0 C 6,4 km/h (2 Bft) 97,87 %
11.04.2017 00:26 13,1 C 68 % 1013,6 hPa 0,0 l/m 4,5 km/h (1 Bft) S-SW 213 0 min 0,000 mm 0,0 UV-I 0 W/m 7,3 C 13,1 C 6,4 km/h (2 Bft) 95,74 %
11.04.2017 00:28 13,1 C 68 % 1013,6 hPa 0,0 l/m 4,5 km/h (1 Bft) S-SW 213 0 min 0,000 mm 0,0 UV-I 0 W/m 7,3 C 13,1 C 6,4 km/h (2 Bft) 96,00 %
11.04.2017 00:30 13,1 C 67 % 1013,6 hPa 0,0 l/m 4,5 km/h (1 Bft) S-SW 213 0 min 0,000 mm 0,0 UV-I 0 W/m 7,1 C 13,1 C 6,4 km/h (2 Bft) 97,73 %
11.04.2017 00:32 13,1 C 67 % 1013,6 hPa 0,0 l/m 5,4 km/h (1 Bft) S-SW 213 0 min 0,000 mm 0,0 UV-I 0 W/m 7,1 C 13,1 C 6,4 km/h (2 Bft) 96,00 %
11.04.2017 00:34 13,1 C 68 % 1013,6 hPa 0,0 l/m 5,6 km/h (1 Bft) SW 216 0 min 0,000 mm 0,0 UV-I 0 W/m 7,3 C 13,1 C 9,7 km/h (2 Bft) 98,00 %
11.04.2017 00:36 13,1 C 68 % 1013,6 hPa 0,0 l/m 5,2 km/h (1 Bft) SW 223 0 min 0,000 mm 0,0 UV-I 0 W/m 7,3 C 13,1 C 8,0 km/h (2 Bft) 93,62 %
11.04.2017 00:38 13,1 C 68 % 1013,6 hPa 0,0 l/m 4,7 km/h (1 Bft) SW 222 0 min 0,000 mm 0,0 UV-I 0 W/m 7,3 C 13,1 C 8,0 km/h (2 Bft) 94,74 %
11.04.2017 00:40 13,0 C 68 % 1013,6 hPa 0,0 l/m 4,8 km/h (1 Bft) S-SW 207 0 min 0,000 mm 0,0 UV-I 0 W/m 7,2 C 13,0 C 9,7 km/h (2 Bft) 98,11 %
11.04.2017 00:42 12,9 C 69 % 1013,7 hPa 0,0 l/m 4,7 km/h (1 Bft) SW 215 0 min 0,000 mm 0,0 UV-I 0 W/m 7,4 C 12,9 C 6,4 km/h (2 Bft) 94,87 %
11.04.2017 00:44 12,9 C 68 % 1013,7 hPa 0,0 l/m 6,0 km/h (2 Bft) W-SW 238 0 min 0,000 mm 0,0 UV-I 0 W/m 7,1 C 12,9 C 8,0 km/h (2 Bft) 97,73 %
11.04.2017 00:46 12,9 C 68 % 1013,8 hPa 0,0 l/m 6,7 km/h (2 Bft) SW 236 0 min 0,000 mm 0,0 UV-I 0 W/m 7,1 C 12,7 C 9,7 km/h (2 Bft) 94,64 %
11.04.2017 00:48 12,9 C 69 % 1013,9 hPa 0,0 l/m 8,5 km/h (2 Bft) W-SW 242 0 min 0,000 mm 0,0 UV-I 0 W/m 7,4 C 11,6 C 12,9 km/h (3 Bft) 97,87 %
11.04.2017 00:50 12,9 C 69 % 1014,0 hPa 0,0 l/m 10,8 km/h (2 Bft) SW 226 0 min 0,000 mm 0,0 UV-I 0 W/m 7,4 C 10,4 C 16,1 km/h (3 Bft) 94,29 %
11.04.2017 00:52 13,0 C 68 % 1013,9 hPa 0,0 l/m 9,7 km/h (2 Bft) SW 227 0 min 0,000 mm 0,0 UV-I 0 W/m 7,2 C 11,1 C 14,5 km/h (3 Bft) 94,34 %
11.04.2017 00:54 13,1 C 69 % 1014,0 hPa 0,0 l/m 8,8 km/h (2 Bft) SW 227 0 min 0,000 mm 0,0 UV-I 0 W/m 7,5 C 11,7 C 14,5 km/h (3 Bft) 98,11 %
11.04.2017 00:56 13,1 C 68 % 1014,0 hPa 0,0 l/m 11,0 km/h (2 Bft) W-SW 238 0 min 0,000 mm 0,0 UV-I 0 W/m 7,3 C 10,5 C 16,1 km/h (3 Bft) 95,45 %
11.04.2017 00:58 13,2 C 68 % 1014,1 hPa 0,0 l/m 9,1 km/h (2 Bft) SW 232 0 min 0,000 mm 0,0 UV-I 0 W/m 7,4 C 11,6 C 16,1 km/h (3 Bft) 98,00 %
11.04.2017 01:00 13,3 C 67 % 1014,1 hPa 0,0 l/m 12,6 km/h (3 Bft) W-SW 242 0 min 0,000 mm 0,0 UV-I 0 W/m 7,3 C 10,1 C 16,1 km/h (3 Bft) 91,30 %
11.04.2017 01:02 13,4 C 67 % 1014,2 hPa 0,0 l/m 12,9 km/h (3 Bft) W-SW 240 0 min 0,025 mm 0,0 UV-I 0 W/m 7,4 C 10,1 C 19,3 km/h (3 Bft) 95,65 %
11.04.2017 01:04 13,4 C 67 % 1014,3 hPa 0,0 l/m 12,5 km/h (3 Bft) SW 230 0 min 0,000 mm 0,0 UV-I 0 W/m 7,4 C 10,2 C 16,1 km/h (3 Bft) 94,00 %
11.04.2017 01:06 13,6 C 66 % 1014,3 hPa 0,0 l/m 13,7 km/h (3 Bft) SW 236 0 min 0,000 mm 0,0 UV-I 0 W/m 7,4 C 10,0 C 20,9 km/h (4 Bft) 96,00 %
11.04.2017 01:08 13,7 C 66 % 1014,4 hPa 0,0 l/m 13,8 km/h (3 Bft) S-SW 209 0 min 0,000 mm 0,0 UV-I 0 W/m 7,5 C 10,1 C 20,9 km/h (4 Bft) 95,45 %
11.04.2017 01:10 13,7 C 65 % 1014,4 hPa 0,0 l/m 15,5 km/h (3 Bft) W 267 0 min 0,000 mm 0,0 UV-I 0 W/m 7,2 C 9,4 C 27,4 km/h (4 Bft) 97,56 %
11.04.2017 01:12 13,9 C 64 % 1014,5 hPa 0,0 l/m 16,3 km/h (3 Bft) W 262 0 min 0,000 mm 0,0 UV-I 0 W/m 7,2 C 9,4 C 24,1 km/h (4 Bft) 98,21 %
11.04.2017 01:14 14,0 C 63 % 1014,6 hPa 0,0 l/m 17,8 km/h (3 Bft) W-SW 246 0 min 0,000 mm 0,0 UV-I 0 W/m 7,1 C 9,1 C 24,1 km/h (4 Bft) 97,37 %
11.04.2017 01:16 14,2 C 62 % 1014,6 hPa 0,0 l/m 17,1 km/h (3 Bft) W-SW 242 0 min 0,000 mm 0,0 UV-I 0 W/m 7,0 C 9,5 C 22,5 km/h (4 Bft) 98,11 %
11.04.2017 01:18 14,2 C 60 % 1014,6 hPa 0,0 l/m 19,4 km/h (3 Bft) SW 236 0 min 0,000 mm 0,0 UV-I 0 W/m 6,5 C 8,9 C 25,7 km/h (4 Bft) 95,12 %
11.04.2017 01:20 14,3 C 60 % 1014,7 hPa 0,0 l/m 13,0 km/h (3 Bft) W 266 0 min 0,000 mm 0,0 UV-I 0 W/m 6,6 C 11,1 C 19,3 km/h (3 Bft) 96,43 %
11.04.2017 01:22 14,4 C 60 % 1014,7 hPa 0,0 l/m 11,1 km/h (2 Bft) W 259 0 min 0,000 mm 0,0 UV-I 0 W/m 6,7 C 12,0 C 19,3 km/h (3 Bft) 97,37 %
11.04.2017 01:24 14,5 C 59 % 1014,7 hPa 0,0 l/m 11,1 km/h (2 Bft) W 263 0 min 0,000 mm 0,0 UV-I 0 W/m 6,6 C 12,1 C 17,7 km/h (3 Bft) 92,86 %
11.04.2017 01:26 14,5 C 59 % 1014,7 hPa 0,0 l/m 11,7 km/h (2 Bft) W 261 0 min 0,000 mm 0,0 UV-I 0 W/m 6,6 C 11,8 C 19,3 km/h (3 Bft) 98,11 %
11.04.2017 01:28 14,6 C 58 % 1014,7 hPa 0,0 l/m 12,7 km/h (3 Bft) W 276 0 min 0,000 mm 0,0 UV-I 0 W/m 6,4 C 11,5 C 20,9 km/h (4 Bft) 95,45 %
11.04.2017 01:30 14,7 C 58 % 1014,7 hPa 0,0 l/m 12,8 km/h (3 Bft) W 264 0 min 0,000 mm 0,0 UV-I 0 W/m 6,5 C 11,6 C 22,5 km/h (4 Bft) 94,34 %
11.04.2017 01:32 14,7 C 58 % 1014,7 hPa 0,0 l/m 12,6 km/h (3 Bft) W 271 0 min 0,000 mm 0,0 UV-I 0 W/m 6,5 C 11,7 C 20,9 km/h (4 Bft) 95,12 %
11.04.2017 01:34 14,8 C 57 % 1014,7 hPa 0,0 l/m 15,2 km/h (3 Bft) W 272 0 min 0,000 mm 0,0 UV-I 0 W/m 6,4 C 10,9 C 19,3 km/h (3 Bft) 98,00 %
11.04.2017 01:36 14,8 C 57 % 1014,7 hPa 0,0 l/m 6,9 km/h (2 Bft) W-SW 258 0 min 0,000 mm 0,0 UV-I 0 W/m 6,4 C 14,5 C 14,5 km/h (3 Bft) 98,00 %
11.04.2017 01:38 14,9 C 57 % 1014,7 hPa 0,0 l/m 11,0 km/h (2 Bft) W-SW 248 0 min 0,000 mm 0,0 UV-I 0 W/m 6,5 C 12,6 C 16,1 km/h (3 Bft) 98,00 %
11.04.2017 01:40 14,9 C 57 % 1014,6 hPa 0,0 l/m 13,2 km/h (3 Bft) W-SW 257 0 min 0,000 mm 0,0 UV-I 0 W/m 6,5 C 11,7 C 19,3 km/h (3 Bft) 100,00 %
11.04.2017 01:42 14,9 C 57 % 1014,6 hPa 0,0 l/m 10,2 km/h (2 Bft) W 278 0 min 0,000 mm 0,0 UV-I 0 W/m 6,5 C 12,9 C 16,1 km/h (3 Bft) 97,56 %
11.04.2017 01:44 14,9 C 58 % 1014,6 hPa 0,0 l/m 7,1 km/h (2 Bft) NW 313 0 min 0,000 mm 0,0 UV-I 0 W/m 6,7 C 14,5 C 11,3 km/h (2 Bft) 100,00 %
11.04.2017 01:46 14,9 C 58 % 1014,7 hPa 0,0 l/m 6,6 km/h (2 Bft) W 260 0 min 0,000 mm 0,0 UV-I 0 W/m 6,7 C 14,8 C 11,3 km/h (2 Bft) 97,56 %
11.04.2017 01:48 14,9 C 59 % 1014,7 hPa 0,0 l/m 5,1 km/h (1 Bft) W 262 0 min 0,000 mm 0,0 UV-I 0 W/m 7,0 C 14,9 C 9,7 km/h (2 Bft) 100,00 %
11.04.2017 01:50 14,8 C 59 % 1014,7 hPa 0,0 l/m 9,9 km/h (2 Bft) W-NW 299 0 min 0,000 mm 0,0 UV-I 0 W/m 6,9 C 12,9 C 17,7 km/h (3 Bft) 96,23 %
11.04.2017 01:52 14,8 C 59 % 1014,7 hPa 0,0 l/m 6,4 km/h (2 Bft) W-SW 247 0 min 0,000 mm 0,0 UV-I 0 W/m 6,9 C 14,8 C 12,9 km/h (3 Bft) 97,14 %
11.04.2017 01:54 14,8 C 59 % 1014,7 hPa 0,0 l/m 5,7 km/h (1 Bft) W-SW 258 0 min 0,000 mm 0,0 UV-I 0 W/m 6,9 C 14,8 C 12,9 km/h (3 Bft) 86,67 %
11.04.2017 01:56 14,8 C 59 % 1014,7 hPa 0,0 l/m 6,9 km/h (2 Bft) W 274 0 min 0,000 mm 0,0 UV-I 0 W/m 6,9 C 14,5 C 17,7 km/h (3 Bft) 96,47 %
11.04.2017 01:58 14,7 C 59 % 1014,8 hPa 0,0 l/m 3,8 km/h (1 Bft) W-SW 257 0 min 0,000 mm 0,0 UV-I 0 W/m 6,8 C 14,7 C 6,4 km/h (2 Bft) 96,00 %
11.04.2017 02:00 14,7 C 59 % 1014,9 hPa 0,0 l/m 7,3 km/h (2 Bft) W-SW 244 0 min 0,051 mm 0,0 UV-I 0 W/m 6,8 C 14,2 C 11,3 km/h (2 Bft) 94,74 %
11.04.2017 02:02 14,7 C 60 % 1015,1 hPa 0,0 l/m 8,5 km/h (2 Bft) W 259 0 min 0,000 mm 0,0 UV-I 0 W/m 7,0 C 13,5 C 12,9 km/h (3 Bft) 96,00 %
11.04.2017 02:04 14,7 C 60 % 1015,1 hPa 0,0 l/m 6,7 km/h (2 Bft) W 260 0 min 0,000 mm 0,0 UV-I 0 W/m 7,0 C 14,5 C 12,9 km/h (3 Bft) 96,23 %
11.04.2017 02:06 14,6 C 60 % 1015,2 hPa 0,0 l/m 7,6 km/h (2 Bft) W-SW 241 0 min 0,000 mm 0,0 UV-I 0 W/m 6,9 C 13,9 C 12,9 km/h (3 Bft) 97,44 %
11.04.2017 02:08 14,6 C 61 % 1015,3 hPa 0,0 l/m 9,2 km/h (2 Bft) SW 234 0 min 0,000 mm 0,0 UV-I 0 W/m 7,2 C 13,1 C 12,9 km/h (3 Bft) 95,74 %
11.04.2017 02:10 14,6 C 61 % 1015,3 hPa 0,0 l/m 10,7 km/h (2 Bft) W-SW 239 0 min 0,000 mm 0,0 UV-I 0 W/m 7,2 C 12,4 C 16,1 km/h (3 Bft) 96,00 %
11.04.2017 02:12 14,6 C 61 % 1015,4 hPa 0,0 l/m 11,9 km/h (2 Bft) W-SW 248 0 min 0,000 mm 0,0 UV-I 0 W/m 7,2 C 11,9 C 19,3 km/h (3 Bft) 94,00 %
11.04.2017 02:14 14,5 C 61 % 1015,7 hPa 0,0 l/m 13,7 km/h (3 Bft) W 260 0 min 0,000 mm 0,0 UV-I 0 W/m 7,1 C 11,0 C 19,3 km/h (3 Bft) 97,56 %
11.04.2017 02:16 14,4 C 61 % 1015,7 hPa 0,0 l/m 14,7 km/h (3 Bft) W-SW 253 0 min 0,000 mm 0,0 UV-I 0 W/m 7,0 C 10,6 C 19,3 km/h (3 Bft) 97,87 %
11.04.2017 02:18 14,4 C 61 % 1015,6 hPa 0,0 l/m 17,9 km/h (3 Bft) W 262 0 min 0,000 mm 0,0 UV-I 0 W/m 7,0 C 9,6 C 25,7 km/h (4 Bft) 98,00 %
11.04.2017 02:20 14,5 C 62 % 1015,7 hPa 0,0 l/m 15,9 km/h (3 Bft) W-SW 239 0 min 0,000 mm 0,0 UV-I 0 W/m 7,3 C 10,3 C 25,7 km/h (4 Bft) 97,56 %
11.04.2017 02:22 14,5 C 62 % 1015,7 hPa 0,0 l/m 18,8 km/h (3 Bft) W-SW 245 0 min 0,000 mm 0,0 UV-I 0 W/m 7,3 C 9,4 C 25,7 km/h (4 Bft) 94,64 %
11.04.2017 02:24 14,6 C 63 % 1015,7 hPa 0,0 l/m 12,4 km/h (3 Bft) W-SW 246 0 min 0,000 mm 0,0 UV-I 0 W/m 7,6 C 11,7 C 17,7 km/h (3 Bft) 97,14 %
11.04.2017 02:26 14,6 C 63 % 1015,7 hPa 0,0 l/m 13,9 km/h (3 Bft) W 259 0 min 0,000 mm 0,0 UV-I 0 W/m 7,6 C 11,1 C 20,9 km/h (4 Bft) 100,00 %
11.04.2017 02:28 14,6 C 64 % 1015,8 hPa 0,0 l/m 15,2 km/h (3 Bft) W-SW 256 0 min 0,000 mm 0,0 UV-I 0 W/m 7,9 C 10,6 C 24,1 km/h (4 Bft) 97,56 %
11.04.2017 02:30 14,5 C 64 % 1015,8 hPa 0,0 l/m 13,2 km/h (3 Bft) W 263 0 min 0,000 mm 0,0 UV-I 0 W/m 7,8 C 11,2 C 22,5 km/h (4 Bft) 100,00 %
11.04.2017 02:32 14,4 C 66 % 1015,9 hPa 0,0 l/m 13,2 km/h (3 Bft) W-SW 249 0 min 0,000 mm 0,0 UV-I 0 W/m 8,1 C 11,1 C 19,3 km/h (3 Bft) 97,56 %
11.04.2017 02:34 14,4 C 67 % 1015,9 hPa 0,0 l/m 15,1 km/h (3 Bft) W-SW 254 0 min 0,000 mm 0,0 UV-I 0 W/m 8,4 C 10,4 C 30,6 km/h (5 Bft) 100,00 %
11.04.2017 02:36 14,3 C 68 % 1015,9 hPa 0,0 l/m 19,6 km/h (3 Bft) W-SW 252 0 min 0,000 mm 0,0 UV-I 0 W/m 8,5 C 8,9 C 30,6 km/h (5 Bft) 100,00 %
11.04.2017 02:38 14,2 C 69 % 1015,9 hPa 0,0 l/m 15,9 km/h (3 Bft) NW 304 0 min 0,000 mm 0,0 UV-I 0 W/m 8,6 C 9,9 C 29,0 km/h (5 Bft) 100,00 %
11.04.2017 02:40 13,9 C 72 % 1015,8 hPa 0,0 l/m 8,1 km/h (2 Bft) W-SW 252 0 min 0,000 mm 0,0 UV-I 0 W/m 8,9 C 12,9 C 14,5 km/h (3 Bft) 97,73 %
11.04.2017 02:42 13,7 C 73 % 1015,8 hPa 0,2 l/m 8,7 km/h (2 Bft) W 259 0 min 0,000 mm 0,0 UV-I 0 W/m 8,9 C 12,3 C 14,5 km/h (3 Bft) 98,11 %
11.04.2017 02:44 13,4 C 75 % 1015,7 hPa 0,0 l/m 7,0 km/h (2 Bft) W 267 0 min 0,000 mm 0,0 UV-I 0 W/m 9,1 C 13,0 C 11,3 km/h (2 Bft) 100,00 %
11.04.2017 02:46 13,2 C 76 % 1015,7 hPa 0,0 l/m 4,2 km/h (1 Bft) W-SW 244 0 min 0,000 mm 0,0 UV-I 0 W/m 9,1 C 13,2 C 9,7 km/h (2 Bft) 98,11 %
11.04.2017 02:48 13,0 C 77 % 1015,6 hPa 0,0 l/m 2,9 km/h (1 Bft) SW 236 0 min 0,000 mm 0,0 UV-I 0 W/m 9,1 C 13,0 C 4,8 km/h (1 Bft) 100,00 %
11.04.2017 02:50 12,9 C 77 % 1015,4 hPa 0,0 l/m 3,4 km/h (1 Bft) S 175 0 min 0,000 mm 0,0 UV-I 0 W/m 9,0 C 12,9 C 8,0 km/h (2 Bft) 98,11 %
11.04.2017 02:52 12,8 C 77 % 1015,4 hPa 0,0 l/m 3,4 km/h (1 Bft) S 171 0 min 0,000 mm 0,0 UV-I 0 W/m 8,9 C 12,8 C 6,4 km/h (2 Bft) 98,11 %
11.04.2017 02:54 12,8 C 78 % 1015,4 hPa 0,0 l/m 3,5 km/h (1 Bft) S-SW 192 0 min 0,000 mm 0,0 UV-I 0 W/m 9,1 C 12,8 C 6,4 km/h (2 Bft) 100,00 %
11.04.2017 02:56 12,8 C 77 % 1015,4 hPa 0,0 l/m 3,4 km/h (1 Bft) S-SW 200 0 min 0,000 mm 0,0 UV-I 0 W/m 8,9 C 12,8 C 4,8 km/h (1 Bft) 92,68 %
11.04.2017 02:58 12,8 C 78 % 1015,4 hPa 0,0 l/m 4,8 km/h (1 Bft) SW 217 0 min 0,000 mm 0,0 UV-I 0 W/m 9,1 C 12,8 C 6,4 km/h (2 Bft) 98,11 %
11.04.2017 03:00 12,7 C 78 % 1015,5 hPa 0,0 l/m 4,4 km/h (1 Bft) SW 218 0 min 0,051 mm 0,0 UV-I 0 W/m 9,0 C 12,7 C 6,4 km/h (2 Bft) 98,00 %
11.04.2017 03:02 12,7 C 78 % 1015,5 hPa 0,0 l/m 2,8 km/h (1 Bft) W-SW 252 0 min 0,000 mm 0,0 UV-I 0 W/m 9,0 C 12,7 C 4,8 km/h (1 Bft) 100,00 %
11.04.2017 03:04 12,6 C 80 % 1015,6 hPa 0,0 l/m 2,7 km/h (1 Bft) W 265 0 min 0,000 mm 0,0 UV-I 0 W/m 9,2 C 12,6 C 4,8 km/h (1 Bft) 98,21 %
11.04.2017 03:06 12,5 C 80 % 1015,6 hPa 0,0 l/m 2,5 km/h (1 Bft) W 273 0 min 0,000 mm 0,0 UV-I 0 W/m 9,1 C 12,5 C 4,8 km/h (1 Bft) 94,00 %
11.04.2017 03:08 12,3 C 81 % 1015,6 hPa 0,0 l/m 0,4 km/h (0 Bft) W 273 0 min 0,000 mm 0,0 UV-I 0 W/m 9,1 C 12,3 C 3,2 km/h (1 Bft) 97,37 %
11.04.2017 03:10 12,3 C 81 % 1015,6 hPa 0,0 l/m 1,1 km/h (1 Bft) W 273 0 min 0,000 mm 0,0 UV-I 0 W/m 9,1 C 12,3 C 3,2 km/h (1 Bft) 96,23 %
11.04.2017 03:12 12,2 C 82 % 1015,6 hPa 0,0 l/m 0,0 km/h (0 Bft) W 273 0 min 0,000 mm 0,0 UV-I 0 W/m 9,2 C 12,2 C 0,0 km/h (0 Bft) 100,00 %
11.04.2017 03:14 12,1 C 83 % 1015,6 hPa 0,0 l/m 2,0 km/h (1 Bft) W 273 0 min 0,000 mm 0,0 UV-I 0 W/m 9,3 C 12,1 C 6,4 km/h (2 Bft) 96,00 %
11.04.2017 03:16 12,0 C 84 % 1015,6 hPa 0,0 l/m 6,3 km/h (2 Bft) W 261 0 min 0,000 mm 0,0 UV-I 0 W/m 9,4 C 12,0 C 11,3 km/h (2 Bft) 100,00 %
11.04.2017 03:18 12,0 C 83 % 1015,6 hPa 0,0 l/m 6,9 km/h (2 Bft) W-SW 246 0 min 0,000 mm 0,0 UV-I 0 W/m 9,2 C 11,7 C 11,3 km/h (2 Bft) 98,00 %
11.04.2017 03:20 12,1 C 82 % 1015,6 hPa 0,0 l/m 5,0 km/h (1 Bft) W-SW 254 0 min 0,000 mm 0,0 UV-I 0 W/m 9,1 C 12,1 C 6,4 km/h (2 Bft) 95,74 %
11.04.2017 03:22 12,2 C 81 % 1015,6 hPa 0,0 l/m 5,7 km/h (1 Bft) W-SW 242 0 min 0,000 mm 0,0 UV-I 0 W/m 9,0 C 12,2 C 11,3 km/h (2 Bft) 100,00 %
11.04.2017 03:24 12,2 C 81 % 1015,7 hPa 0,0 l/m 6,0 km/h (2 Bft) W 261 0 min 0,000 mm 0,0 UV-I 0 W/m 9,0 C 12,2 C 11,3 km/h (2 Bft) 98,08 %
11.04.2017 03:26 12,3 C 81 % 1015,7 hPa 0,0 l/m 4,0 km/h (1 Bft) W-NW 284 0 min 0,000 mm 0,0 UV-I 0 W/m 9,1 C 12,3 C 6,4 km/h (2 Bft) 100,00 %
11.04.2017 03:28 12,3 C 81 % 1015,7 hPa 0,0 l/m 3,0 km/h (1 Bft) W-NW 284 0 min 0,000 mm 0,0 UV-I 0 W/m 9,1 C 12,3 C 4,8 km/h (1 Bft) 97,44 %
11.04.2017 03:30 12,3 C 82 % 1015,8 hPa 0,0 l/m 6,2 km/h (2 Bft) W 273 0 min 0,000 mm 0,0 UV-I 0 W/m 9,3 C 12,3 C 11,3 km/h (2 Bft) 100,00 %
11.04.2017 03:32 12,2 C 82 % 1015,8 hPa 0,0 l/m 7,0 km/h (2 Bft) SW 228 0 min 0,000 mm 0,0 UV-I 0 W/m 9,2 C 11,8 C 11,3 km/h (2 Bft) 100,00 %
11.04.2017 03:34 12,2 C 80 % 1015,8 hPa 0,0 l/m 10,1 km/h (2 Bft) W 260 0 min 0,000 mm 0,0 UV-I 0 W/m 8,9 C 10,0 C 17,7 km/h (3 Bft) 100,00 %
11.04.2017 03:36 12,3 C 80 % 1015,7 hPa 0,0 l/m 10,7 km/h (2 Bft) W-SW 257 0 min 0,000 mm 0,0 UV-I 0 W/m 8,9 C 9,8 C 16,1 km/h (3 Bft) 100,00 %
11.04.2017 03:38 12,3 C 80 % 1015,8 hPa 0,0 l/m 8,4 km/h (2 Bft) W-SW 256 0 min 0,000 mm 0,0 UV-I 0 W/m 8,9 C 11,0 C 12,9 km/h (3 Bft) 98,11 %
11.04.2017 03:40 12,3 C 80 % 1015,8 hPa 0,0 l/m 9,3 km/h (2 Bft) W-SW 237 0 min 0,000 mm 0,0 UV-I 0 W/m 8,9 C 10,5 C 12,9 km/h (3 Bft) 100,00 %
11.04.2017 03:42 12,4 C 80 % 1015,8 hPa 0,0 l/m 8,9 km/h (2 Bft) W-SW 250 0 min 0,000 mm 0,0 UV-I 0 W/m 9,0 C 10,8 C 12,9 km/h (3 Bft) 98,11 %
11.04.2017 03:44 12,4 C 80 % 1015,8 hPa 0,0 l/m 11,7 km/h (2 Bft) W 262 0 min 0,000 mm 0,0 UV-I 0 W/m 9,0 C 9,4 C 24,1 km/h (4 Bft) 94,74 %
11.04.2017 03:46 12,4 C 80 % 1015,8 hPa 0,0 l/m 15,5 km/h (3 Bft) W-SW 255 0 min 0,000 mm 0,0 UV-I 0 W/m 9,0 C 7,9 C 20,9 km/h (4 Bft) 98,00 %
11.04.2017 03:48 12,4 C 80 % 1015,8 hPa 0,0 l/m 11,7 km/h (2 Bft) W-SW 250 0 min 0,000 mm 0,0 UV-I 0 W/m 9,0 C 9,4 C 16,1 km/h (3 Bft) 100,00 %
11.04.2017 03:50 12,5 C 80 % 1015,8 hPa 0,0 l/m 15,9 km/h (3 Bft) W-SW 252 0 min 0,000 mm 0,0 UV-I 0 W/m 9,1 C 7,8 C 22,5 km/h (4 Bft) 94,74 %
11.04.2017 03:52 12,5 C 79 % 1015,8 hPa 0,0 l/m 13,4 km/h (3 Bft) W 279 0 min 0,000 mm 0,0 UV-I 0 W/m 9,0 C 8,8 C 19,3 km/h (3 Bft) 100,00 %
11.04.2017 03:54 12,6 C 79 % 1015,8 hPa 0,0 l/m 12,8 km/h (3 Bft) W 276 0 min 0,000 mm 0,0 UV-I 0 W/m 9,1 C 9,2 C 19,3 km/h (3 Bft) 100,00 %
11.04.2017 03:56 12,6 C 80 % 1015,7 hPa 0,0 l/m 9,8 km/h (2 Bft) W 263 0 min 0,000 mm 0,0 UV-I 0 W/m 9,2 C 10,6 C 12,9 km/h (3 Bft) 94,34 %
11.04.2017 03:58 12,6 C 80 % 1015,6 hPa 0,0 l/m 11,9 km/h (2 Bft) W-SW 249 0 min 0,000 mm 0,0 UV-I 0 W/m 9,2 C 9,6 C 16,1 km/h (3 Bft) 90,00 %
11.04.2017 04:00 12,6 C 80 % 1015,7 hPa 0,0 l/m 12,5 km/h (3 Bft) W 277 0 min 0,025 mm 0,0 UV-I 0 W/m 9,2 C 9,3 C 17,7 km/h (3 Bft) 95,74 %
11.04.2017 04:02 12,6 C 80 % 1015,8 hPa 0,0 l/m 10,6 km/h (2 Bft) SW 234 0 min 0,000 mm 0,0 UV-I 0 W/m 9,2 C 10,2 C 19,3 km/h (3 Bft) 100,00 %
11.04.2017 04:04 12,6 C 81 % 1015,8 hPa 0,0 l/m 13,7 km/h (3 Bft) W-SW 248 0 min 0,000 mm 0,0 UV-I 0 W/m 9,4 C 8,8 C 19,3 km/h (3 Bft) 96,43 %
11.04.2017 04:06 12,6 C 81 % 1015,8 hPa 0,0 l/m 12,4 km/h (3 Bft) W-SW 244 0 min 0,000 mm 0,0 UV-I 0 W/m 9,4 C 9,3 C 20,9 km/h (4 Bft) 95,12 %
11.04.2017 04:08 12,6 C 81 % 1015,8 hPa 0,0 l/m 14,5 km/h (3 Bft) SW 234 0 min 0,000 mm 0,0 UV-I 0 W/m 9,4 C 8,5 C 22,5 km/h (4 Bft) 98,11 %
11.04.2017 04:10 12,5 C 81 % 1015,9 hPa 0,0 l/m 16,1 km/h (3 Bft) W-SW 251 0 min 0,000 mm 0,0 UV-I 0 W/m 9,3 C 7,8 C 27,4 km/h (4 Bft) 95,45 %
11.04.2017 04:12 12,6 C 81 % 1015,9 hPa 0,0 l/m 13,6 km/h (3 Bft) W 261 0 min 0,000 mm 0,0 UV-I 0 W/m 9,4 C 8,8 C 20,9 km/h (4 Bft) 95,74 %
11.04.2017 04:14 12,6 C 81 % 1016,1 hPa 0,0 l/m 16,4 km/h (3 Bft) W 259 0 min 0,000 mm 0,0 UV-I 0 W/m 9,4 C 7,8 C 24,1 km/h (4 Bft) 93,62 %
11.04.2017 04:16 12,6 C 81 % 1016,1 hPa 0,0 l/m 15,2 km/h (3 Bft) W-SW 244 0 min 0,000 mm 0,0 UV-I 0 W/m 9,4 C 8,2 C 20,9 km/h (4 Bft) 98,00 %
11.04.2017 04:18 12,6 C 81 % 1016,2 hPa 0,0 l/m 10,2 km/h (2 Bft) W-SW 254 0 min 0,000 mm 0,0 UV-I 0 W/m 9,4 C 10,4 C 16,1 km/h (3 Bft) 96,00 %
11.04.2017 04:20 12,6 C 81 % 1016,2 hPa 0,0 l/m 10,4 km/h (2 Bft) W-SW 245 0 min 0,000 mm 0,0 UV-I 0 W/m 9,4 C 10,3 C 16,1 km/h (3 Bft) 97,87 %
11.04.2017 04:22 12,5 C 81 % 1016,1 hPa 0,0 l/m 15,0 km/h (3 Bft) W 266 0 min 0,000 mm 0,0 UV-I 0 W/m 9,3 C 8,2 C 20,9 km/h (4 Bft) 97,37 %
11.04.2017 04:24 12,5 C 81 % 1016,1 hPa 0,0 l/m 13,1 km/h (3 Bft) W-NW 294 0 min 0,000 mm 0,0 UV-I 0 W/m 9,3 C 8,9 C 19,3 km/h (3 Bft) 98,11 %
11.04.2017 04:26 12,5 C 82 % 1016,1 hPa 0,0 l/m 10,4 km/h (2 Bft) W-SW 256 0 min 0,000 mm 0,0 UV-I 0 W/m 9,5 C 10,2 C 17,7 km/h (3 Bft) 96,15 %
11.04.2017 04:28 12,5 C 82 % 1016,1 hPa 0,0 l/m 14,1 km/h (3 Bft) W 267 0 min 0,000 mm 0,0 UV-I 0 W/m 9,5 C 8,5 C 22,5 km/h (4 Bft) 95,38 %
11.04.2017 04:30 12,5 C 82 % 1016,2 hPa 0,0 l/m 11,2 km/h (2 Bft) W 261 0 min 0,000 mm 0,0 UV-I 0 W/m 9,5 C 9,8 C 17,7 km/h (3 Bft) 92,68 %
11.04.2017 04:32 12,5 C 82 % 1016,2 hPa 0,0 l/m 11,8 km/h (2 Bft) W 278 0 min 0,000 mm 0,0 UV-I 0 W/m 9,5 C 9,5 C 17,7 km/h (3 Bft) 94,64 %
11.04.2017 04:34 12,5 C 82 % 1016,2 hPa 0,0 l/m 16,6 km/h (3 Bft) S-SW 192 0 min 0,000 mm 0,0 UV-I 0 W/m 9,5 C 7,6 C 27,4 km/h (4 Bft) 97,56 %
11.04.2017 04:36 12,5 C 82 % 1016,2 hPa 0,0 l/m 16,1 km/h (3 Bft) W 271 0 min 0,000 mm 0,0 UV-I 0 W/m 9,5 C 7,8 C 24,1 km/h (4 Bft) 94,34 %
11.04.2017 04:38 12,5 C 82 % 1016,2 hPa 0,0 l/m 14,7 km/h (3 Bft) W 266 0 min 0,000 mm 0,0 UV-I 0 W/m 9,5 C 8,3 C 20,9 km/h (4 Bft) 97,73 %
11.04.2017 04:40 12,5 C 82 % 1016,2 hPa 0,0 l/m 13,4 km/h (3 Bft) W-NW 291 0 min 0,000 mm 0,0 UV-I 0 W/m 9,5 C 8,8 C 25,7 km/h (4 Bft) 96,00 %
11.04.2017 04:42 12,5 C 82 % 1016,3 hPa 0,0 l/m 12,8 km/h (3 Bft) W 265 0 min 0,000 mm 0,0 UV-I 0 W/m 9,5 C 9,0 C 20,9 km/h (4 Bft) 100,00 %
11.04.2017 04:44 12,5 C 82 % 1016,3 hPa 0,0 l/m 14,8 km/h (3 Bft) W-SW 249 0 min 0,000 mm 0,0 UV-I 0 W/m 9,5 C 8,2 C 22,5 km/h (4 Bft) 95,38 %
11.04.2017 04:46 12,4 C 82 % 1016,3 hPa 0,0 l/m 13,9 km/h (3 Bft) W 265 0 min 0,000 mm 0,0 UV-I 0 W/m 9,4 C 8,5 C 22,5 km/h (4 Bft) 97,56 %
11.04.2017 04:48 12,4 C 82 % 1016,3 hPa 0,0 l/m 14,3 km/h (3 Bft) W-SW 256 0 min 0,000 mm 0,0 UV-I 0 W/m 9,4 C 8,3 C 19,3 km/h (3 Bft) 98,11 %
11.04.2017 04:50 12,4 C 82 % 1016,3 hPa 0,0 l/m 18,4 km/h (3 Bft) W 277 0 min 0,000 mm 0,0 UV-I 0 W/m 9,4 C 6,9 C 29,0 km/h (5 Bft) 95,12 %
11.04.2017 04:52 12,4 C 82 % 1016,3 hPa 0,0 l/m 10,0 km/h (2 Bft) W 259 0 min 0,000 mm 0,0 UV-I 0 W/m 9,4 C 10,2 C 19,3 km/h (3 Bft) 96,08 %
11.04.2017 04:54 12,4 C 83 % 1016,3 hPa 0,0 l/m 10,3 km/h (2 Bft) W-SW 253 0 min 0,000 mm 0,0 UV-I 0 W/m 9,6 C 10,1 C 19,3 km/h (3 Bft) 98,11 %
11.04.2017 04:56 12,3 C 83 % 1016,3 hPa 0,0 l/m 12,6 km/h (3 Bft) W 269 0 min 0,000 mm 0,0 UV-I 0 W/m 9,5 C 8,9 C 16,1 km/h (3 Bft) 89,47 %
11.04.2017 04:58 12,3 C 83 % 1016,3 hPa 0,0 l/m 11,4 km/h (2 Bft) W 277 0 min 0,000 mm 0,0 UV-I 0 W/m 9,5 C 9,4 C 16,1 km/h (3 Bft) 96,23 %
11.04.2017 05:00 12,3 C 83 % 1016,3 hPa 0,0 l/m 12,7 km/h (3 Bft) W 273 0 min 0,026 mm 0,0 UV-I 0 W/m 9,5 C 8,9 C 20,9 km/h (4 Bft) 97,14 %
11.04.2017 05:02 12,3 C 83 % 1016,4 hPa 0,0 l/m 12,0 km/h (2 Bft) W 267 0 min 0,000 mm 0,0 UV-I 0 W/m 9,5 C 9,2 C 17,7 km/h (3 Bft) 94,74 %
11.04.2017 05:04 12,2 C 83 % 1016,4 hPa 0,0 l/m 11,1 km/h (2 Bft) W 273 0 min 0,000 mm 0,0 UV-I 0 W/m 9,4 C 9,5 C 17,7 km/h (3 Bft) 95,12 %
11.04.2017 05:06 12,2 C 83 % 1016,3 hPa 0,0 l/m 12,6 km/h (3 Bft) W-NW 298 0 min 0,000 mm 0,0 UV-I 0 W/m 9,4 C 8,8 C 19,3 km/h (3 Bft) 96,43 %
11.04.2017 05:08 12,2 C 83 % 1016,3 hPa 0,0 l/m 12,2 km/h (2 Bft) W 262 0 min 0,000 mm 0,0 UV-I 0 W/m 9,4 C 9,0 C 19,3 km/h (3 Bft) 95,45 %
11.04.2017 05:10 12,2 C 83 % 1016,3 hPa 0,0 l/m 10,8 km/h (2 Bft) W-SW 241 0 min 0,000 mm 0,0 UV-I 0 W/m 9,4 C 9,6 C 17,7 km/h (3 Bft) 94,74 %
11.04.2017 05:12 12,1 C 83 % 1016,4 hPa 0,0 l/m 10,8 km/h (2 Bft) W-SW 248 0 min 0,000 mm 0,0 UV-I 0 W/m 9,3 C 9,5 C 14,5 km/h (3 Bft) 96,23 %
11.04.2017 05:14 12,1 C 83 % 1016,4 hPa 0,0 l/m 10,1 km/h (2 Bft) W 262 0 min 0,000 mm 0,0 UV-I 0 W/m 9,3 C 9,9 C 14,5 km/h (3 Bft) 97,87 %
11.04.2017 05:16 12,1 C 83 % 1016,4 hPa 0,0 l/m 13,4 km/h (3 Bft) W 259 0 min 0,000 mm 0,0 UV-I 0 W/m 9,3 C 8,3 C 22,5 km/h (4 Bft) 96,00 %
11.04.2017 05:18 12,1 C 83 % 1016,4 hPa 0,0 l/m 13,1 km/h (3 Bft) W-SW 244 0 min 0,000 mm 0,0 UV-I 0 W/m 9,3 C 8,4 C 17,7 km/h (3 Bft) 97,44 %
11.04.2017 05:20 12,1 C 83 % 1016,5 hPa 0,0 l/m 12,5 km/h (3 Bft) W-SW 254 0 min 0,000 mm 0,0 UV-I 0 W/m 9,3 C 8,7 C 22,5 km/h (4 Bft) 95,45 %
11.04.2017 05:22 12,0 C 83 % 1016,5 hPa 0,0 l/m 12,9 km/h (3 Bft) W-SW 242 0 min 0,000 mm 0,0 UV-I 0 W/m 9,2 C 8,4 C 22,5 km/h (4 Bft) 94,83 %
11.04.2017 05:24 12,0 C 83 % 1016,5 hPa 0,0 l/m 8,4 km/h (2 Bft) W-SW 240 0 min 0,000 mm 0,0 UV-I 0 W/m 9,2 C 10,7 C 14,5 km/h (3 Bft) 97,62 %
11.04.2017 05:26 11,9 C 83 % 1016,5 hPa 0,0 l/m 10,6 km/h (2 Bft) SW 224 0 min 0,000 mm 0,0 UV-I 0 W/m 9,1 C 9,4 C 17,7 km/h (3 Bft) 95,74 %
11.04.2017 05:28 11,9 C 83 % 1016,5 hPa 0,0 l/m 13,1 km/h (3 Bft) W 263 0 min 0,000 mm 0,0 UV-I 0 W/m 9,1 C 8,2 C 20,9 km/h (4 Bft) 98,11 %
11.04.2017 05:30 11,9 C 83 % 1016,6 hPa 0,0 l/m 10,6 km/h (2 Bft) W-SW 249 0 min 0,000 mm 0,0 UV-I 0 W/m 9,1 C 9,4 C 17,7 km/h (3 Bft) 94,74 %
11.04.2017 05:32 11,9 C 83 % 1016,6 hPa 0,0 l/m 12,4 km/h (3 Bft) W 275 0 min 0,000 mm 0,0 UV-I 0 W/m 9,1 C 8,5 C 22,5 km/h (4 Bft) 96,23 %
11.04.2017 05:34 11,9 C 83 % 1016,6 hPa 0,0 l/m 9,2 km/h (2 Bft) N-NW 331 0 min 0,000 mm 0,0 UV-I 0 W/m 9,1 C 10,1 C 16,1 km/h (3 Bft) 93,18 %
11.04.2017 05:36 11,8 C 83 % 1016,6 hPa 0,0 l/m 9,8 km/h (2 Bft) W-NW 287 0 min 0,000 mm 0,0 UV-I 0 W/m 9,0 C 9,7 C 17,7 km/h (3 Bft) 98,00 %
11.04.2017 05:38 11,8 C 83 % 1016,6 hPa 0,0 l/m 10,4 km/h (2 Bft) W-SW 237 0 min 0,000 mm 0,0 UV-I 0 W/m 9,0 C 9,4 C 16,1 km/h (3 Bft) 100,00 %
11.04.2017 05:40 11,8 C 83 % 1016,7 hPa 0,0 l/m 8,5 km/h (2 Bft) W 259 0 min 0,000 mm 0,0 UV-I 0 W/m 9,0 C 10,4 C 14,5 km/h (3 Bft) 97,87 %
11.04.2017 05:42 11,7 C 83 % 1016,6 hPa 0,0 l/m 11,7 km/h (2 Bft) W 270 0 min 0,000 mm 0,0 UV-I 0 W/m 8,9 C 8,6 C 19,3 km/h (3 Bft) 100,00 %
11.04.2017 05:44 11,7 C 83 % 1016,6 hPa 0,0 l/m 11,0 km/h (2 Bft) W 259 0 min 0,000 mm 0,0 UV-I 0 W/m 8,9 C 9,0 C 24,1 km/h (4 Bft) 95,74 %
11.04.2017 05:46 11,6 C 83 % 1016,6 hPa 0,0 l/m 14,2 km/h (3 Bft) W 279 0 min 0,000 mm 0,0 UV-I 0 W/m 8,8 C 7,4 C 20,9 km/h (4 Bft) 100,00 %
11.04.2017 05:48 11,6 C 83 % 1016,6 hPa 0,0 l/m 10,2 km/h (2 Bft) W-SW 258 0 min 0,000 mm 0,0 UV-I 0 W/m 8,8 C 9,3 C 14,5 km/h (3 Bft) 95,12 %
11.04.2017 05:50 11,6 C 83 % 1016,7 hPa 0,0 l/m 9,6 km/h (2 Bft) W-SW 244 0 min 0,000 mm 0,0 UV-I 0 W/m 8,8 C 9,6 C 14,5 km/h (3 Bft) 100,00 %
11.04.2017 05:52 11,5 C 83 % 1016,7 hPa 0,0 l/m 12,4 km/h (3 Bft) W 260 0 min 0,000 mm 0,0 UV-I 0 W/m 8,7 C 8,1 C 20,9 km/h (4 Bft) 100,00 %
11.04.2017 05:54 11,4 C 83 % 1016,7 hPa 0,0 l/m 11,7 km/h (2 Bft) W 269 0 min 0,000 mm 0,0 UV-I 0 W/m 8,6 C 8,3 C 17,7 km/h (3 Bft) 100,00 %
11.04.2017 05:56 11,4 C 83 % 1016,8 hPa 0,0 l/m 9,0 km/h (2 Bft) W 265 0 min 0,000 mm 0,0 UV-I 0 W/m 8,6 C 9,7 C 11,3 km/h (2 Bft) 98,00 %
11.04.2017 05:58 11,3 C 83 % 1016,8 hPa 0,0 l/m 8,9 km/h (2 Bft) W-SW 254 0 min 0,000 mm 0,0 UV-I 0 W/m 8,5 C 9,7 C 12,9 km/h (3 Bft) 98,00 %
11.04.2017 06:00 11,3 C 84 % 1016,8 hPa 0,0 l/m 12,4 km/h (3 Bft) W 277 0 min 0,025 mm 0,0 UV-I 0 W/m 8,7 C 7,8 C 19,3 km/h (3 Bft) 96,00 %
11.04.2017 06:02 11,2 C 84 % 1016,7 hPa 0,0 l/m 13,6 km/h (3 Bft) W-NW 293 0 min 0,000 mm 0,0 UV-I 0 W/m 8,6 C 7,2 C 22,5 km/h (4 Bft) 97,62 %
11.04.2017 06:04 11,2 C 84 % 1016,8 hPa 0,0 l/m 10,9 km/h (2 Bft) W 277 0 min 0,000 mm 0,0 UV-I 0 W/m 8,6 C 8,4 C 20,9 km/h (4 Bft) 95,45 %
11.04.2017 06:06 11,2 C 84 % 1016,9 hPa 0,0 l/m 14,5 km/h (3 Bft) W-SW 250 0 min 0,000 mm 0,0 UV-I 0 W/m 8,6 C 6,8 C 27,4 km/h (4 Bft) 98,11 %
11.04.2017 06:08 11,2 C 84 % 1017,0 hPa 0,0 l/m 8,7 km/h (2 Bft) W-NW 291 0 min 0,000 mm 0,0 UV-I 0 W/m 8,6 C 9,7 C 14,5 km/h (3 Bft) 98,00 %
11.04.2017 06:10 11,1 C 84 % 1016,9 hPa 0,0 l/m 9,5 km/h (2 Bft) W 273 0 min 0,000 mm 0,0 UV-I 0 W/m 8,5 C 9,1 C 16,1 km/h (3 Bft) 95,24 %
11.04.2017 06:12 11,1 C 84 % 1016,8 hPa 0,0 l/m 10,8 km/h (2 Bft) W-NW 296 0 min 0,000 mm 0,0 UV-I 0 W/m 8,5 C 8,4 C 19,3 km/h (3 Bft) 96,00 %
11.04.2017 06:14 11,0 C 84 % 1016,8 hPa 0,0 l/m 10,1 km/h (2 Bft) W-SW 242 0 min 0,000 mm 0,0 UV-I 0 W/m 8,4 C 8,6 C 16,1 km/h (3 Bft) 93,18 %
11.04.2017 06:16 10,9 C 84 % 1016,9 hPa 0,0 l/m 10,5 km/h (2 Bft) W 262 0 min 0,000 mm 0,0 UV-I 4 W/m 8,3 C 8,3 C 19,3 km/h (3 Bft) 93,18 %
11.04.2017 06:18 10,9 C 84 % 1016,9 hPa 0,0 l/m 8,9 km/h (2 Bft) SW 235 0 min 0,000 mm 0,0 UV-I 5 W/m 8,3 C 9,2 C 12,9 km/h (3 Bft) 97,87 %
11.04.2017 06:20 10,8 C 84 % 1017,1 hPa 0,0 l/m 10,5 km/h (2 Bft) W 269 0 min 0,000 mm 0,0 UV-I 5 W/m 8,2 C 8,2 C 16,1 km/h (3 Bft) 98,00 %
11.04.2017 06:22 10,8 C 84 % 1017,1 hPa 0,0 l/m 9,9 km/h (2 Bft) W 262 0 min 0,000 mm 0,0 UV-I 6 W/m 8,2 C 8,5 C 14,5 km/h (3 Bft) 97,73 %
11.04.2017 06:24 10,7 C 85 % 1017,1 hPa 0,0 l/m 10,3 km/h (2 Bft) W-SW 248 0 min 0,000 mm 0,0 UV-I 7 W/m 8,3 C 8,2 C 16,1 km/h (3 Bft) 98,00 %
11.04.2017 06:26 10,7 C 85 % 1017,2 hPa 0,0 l/m 10,1 km/h (2 Bft) W 267 0 min 0,000 mm 0,0 UV-I 8 W/m 8,3 C 8,3 C 16,1 km/h (3 Bft) 90,24 %
11.04.2017 06:28 10,6 C 85 % 1017,2 hPa 0,0 l/m 8,7 km/h (2 Bft) W-SW 254 0 min 0,000 mm 0,0 UV-I 9 W/m 8,2 C 9,0 C 14,5 km/h (3 Bft) 95,45 %
11.04.2017 06:30 10,6 C 84 % 1017,2 hPa 0,0 l/m 10,8 km/h (2 Bft) W 263 0 min 0,000 mm 0,0 UV-I 9 W/m 8,0 C 7,8 C 19,3 km/h (3 Bft) 98,21 %
11.04.2017 06:32 10,6 C 85 % 1017,3 hPa 0,0 l/m 10,4 km/h (2 Bft) W 273 2 min 0,000 mm 0,0 UV-I 9 W/m 8,2 C 8,0 C 17,7 km/h (3 Bft) 96,30 %
11.04.2017 06:34 10,5 C 84 % 1017,4 hPa 0,0 l/m 8,5 km/h (2 Bft) W 265 0 min 0,000 mm 0,0 UV-I 9 W/m 7,9 C 9,1 C 12,9 km/h (3 Bft) 94,03 %
11.04.2017 06:36 10,5 C 85 % 1017,4 hPa 0,0 l/m 13,2 km/h (3 Bft) W 264 0 min 0,000 mm 0,0 UV-I 9 W/m 8,1 C 6,5 C 19,3 km/h (3 Bft) 92,31 %
11.04.2017 06:38 10,5 C 84 % 1017,3 hPa 0,0 l/m 10,8 km/h (2 Bft) W 263 0 min 0,000 mm 0,0 UV-I 10 W/m 7,9 C 7,7 C 14,5 km/h (3 Bft) 98,08 %
11.04.2017 06:40 10,5 C 84 % 1017,3 hPa 0,0 l/m 8,7 km/h (2 Bft) SW 223 0 min 0,000 mm 0,0 UV-I 11 W/m 7,9 C 8,9 C 14,5 km/h (3 Bft) 100,00 %
11.04.2017 06:42 10,5 C 84 % 1017,3 hPa 0,0 l/m 13,1 km/h (3 Bft) W 264 0 min 0,000 mm 0,0 UV-I 11 W/m 7,9 C 6,6 C 19,3 km/h (3 Bft) 97,87 %
11.04.2017 06:44 10,5 C 84 % 1017,4 hPa 0,0 l/m 11,9 km/h (2 Bft) W-SW 252 0 min 0,000 mm 0,0 UV-I 12 W/m 7,9 C 7,1 C 17,7 km/h (3 Bft) 95,45 %
11.04.2017 06:46 10,5 C 83 % 1017,4 hPa 0,0 l/m 9,3 km/h (2 Bft) W 269 0 min 0,000 mm 0,0 UV-I 12 W/m 7,7 C 8,6 C 12,9 km/h (3 Bft) 88,68 %
11.04.2017 06:48 10,5 C 83 % 1017,5 hPa 0,0 l/m 11,4 km/h (2 Bft) W 263 0 min 0,000 mm 0,0 UV-I 13 W/m 7,7 C 7,4 C 19,3 km/h (3 Bft) 97,67 %
11.04.2017 06:50 10,5 C 83 % 1017,5 hPa 0,0 l/m 10,4 km/h (2 Bft) W-SW 248 0 min 0,000 mm 0,0 UV-I 17 W/m 7,7 C 7,9 C 16,1 km/h (3 Bft) 94,12 %
11.04.2017 06:52 10,5 C 83 % 1017,5 hPa 0,0 l/m 14,6 km/h (3 Bft) W-SW 240 0 min 0,000 mm 0,0 UV-I 21 W/m 7,7 C 5,9 C 20,9 km/h (4 Bft) 97,73 %
11.04.2017 06:54 10,5 C 82 % 1017,6 hPa 0,0 l/m 15,8 km/h (3 Bft) W 260 0 min 0,000 mm 0,0 UV-I 25 W/m 7,6 C 5,4 C 27,4 km/h (4 Bft) 95,45 %
11.04.2017 06:56 10,5 C 82 % 1017,7 hPa 0,0 l/m 14,3 km/h (3 Bft) W-SW 257 0 min 0,000 mm 0,0 UV-I 27 W/m 7,6 C 6,0 C 25,7 km/h (4 Bft) 97,73 %
11.04.2017 06:58 10,5 C 82 % 1017,7 hPa 0,0 l/m 15,7 km/h (3 Bft) W 259 0 min 0,000 mm 0,0 UV-I 28 W/m 7,6 C 5,5 C 20,9 km/h (4 Bft) 96,23 %
11.04.2017 07:00 10,5 C 81 % 1017,8 hPa 0,0 l/m 16,8 km/h (3 Bft) W-SW 248 0 min 0,026 mm 0,0 UV-I 25 W/m 7,4 C 5,0 C 25,7 km/h (4 Bft) 90,00 %
11.04.2017 07:02 10,5 C 81 % 1017,9 hPa 0,0 l/m 16,2 km/h (3 Bft) W-SW 250 0 min 0,000 mm 0,0 UV-I 20 W/m 7,4 C 5,3 C 24,1 km/h (4 Bft) 97,37 %
11.04.2017 07:04 10,5 C 81 % 1017,8 hPa 0,0 l/m 12,2 km/h (2 Bft) W 265 0 min 0,000 mm 0,0 UV-I 23 W/m 7,4 C 7,0 C 20,9 km/h (4 Bft) 94,00 %
11.04.2017 07:06 10,5 C 81 % 1017,9 hPa 0,0 l/m 11,9 km/h (2 Bft) W 275 0 min 0,000 mm 0,0 UV-I 22 W/m 7,4 C 7,1 C 16,1 km/h (3 Bft) 100,00 %
11.04.2017 07:08 10,5 C 81 % 1017,9 hPa 0,0 l/m 11,5 km/h (2 Bft) W-SW 255 0 min 0,000 mm 0,0 UV-I 21 W/m 7,4 C 7,3 C 20,9 km/h (4 Bft) 98,00 %
11.04.2017 07:10 10,5 C 81 % 1018,0 hPa 0,0 l/m 12,8 km/h (3 Bft) W 263 0 min 0,000 mm 0,0 UV-I 19 W/m 7,4 C 6,7 C 17,7 km/h (3 Bft) 92,45 %
11.04.2017 07:12 10,5 C 81 % 1018,1 hPa 0,0 l/m 11,6 km/h (2 Bft) W-SW 257 0 min 0,000 mm 0,0 UV-I 19 W/m 7,4 C 7,3 C 16,1 km/h (3 Bft) 97,37 %
11.04.2017 07:14 10,4 C 81 % 1018,2 hPa 0,0 l/m 12,6 km/h (3 Bft) W-SW 256 0 min 0,000 mm 0,0 UV-I 16 W/m 7,3 C 6,7 C 19,3 km/h (3 Bft) 96,43 %
11.04.2017 07:16 10,4 C 81 % 1018,2 hPa 0,0 l/m 10,7 km/h (2 Bft) W 263 0 min 0,000 mm 0,0 UV-I 14 W/m 7,3 C 7,6 C 17,7 km/h (3 Bft) 100,00 %
11.04.2017 07:18 10,4 C 82 % 1018,3 hPa 0,0 l/m 12,9 km/h (3 Bft) W-SW 240 0 min 0,000 mm 0,0 UV-I 15 W/m 7,5 C 6,5 C 20,9 km/h (4 Bft) 100,00 %
11.04.2017 07:20 10,4 C 82 % 1018,3 hPa 0,0 l/m 12,5 km/h (3 Bft) W 262 0 min 0,000 mm 0,0 UV-I 20 W/m 7,5 C 6,7 C 20,9 km/h (4 Bft) 100,00 %
11.04.2017 07:22 10,4 C 81 % 1018,2 hPa 0,0 l/m 13,9 km/h (3 Bft) W 263 0 min 0,000 mm 0,0 UV-I 25 W/m 7,3 C 6,1 C 25,7 km/h (4 Bft) 95,74 %
11.04.2017 07:24 10,3 C 80 % 1018,3 hPa 0,0 l/m 14,6 km/h (3 Bft) W 275 0 min 0,000 mm 0,0 UV-I 30 W/m 7,0 C 5,7 C 25,7 km/h (4 Bft) 97,56 %
11.04.2017 07:26 10,3 C 80 % 1018,3 hPa 0,0 l/m 12,6 km/h (3 Bft) W 274 0 min 0,000 mm 0,0 UV-I 36 W/m 7,0 C 6,6 C 19,3 km/h (3 Bft) 93,62 %
11.04.2017 07:28 10,3 C 80 % 1018,4 hPa 0,0 l/m 9,0 km/h (2 Bft) NW 304 0 min 0,000 mm 0,0 UV-I 44 W/m 7,0 C 8,5 C 14,5 km/h (3 Bft) 98,21 %
11.04.2017 07:30 10,3 C 80 % 1018,4 hPa 0,0 l/m 16,4 km/h (3 Bft) W 269 0 min 0,000 mm 0,0 UV-I 52 W/m 7,0 C 4,9 C 29,0 km/h (5 Bft) 100,00 %
11.04.2017 07:32 10,3 C 80 % 1018,4 hPa 0,0 l/m 12,9 km/h (3 Bft) W-SW 251 0 min 0,000 mm 0,0 UV-I 65 W/m 7,0 C 6,4 C 17,7 km/h (3 Bft) 96,43 %
11.04.2017 07:34 10,3 C 80 % 1018,5 hPa 0,0 l/m 11,5 km/h (2 Bft) W 266 0 min 0,000 mm 0,0 UV-I 77 W/m 7,0 C 7,1 C 20,9 km/h (4 Bft) 94,29 %
11.04.2017 07:36 10,3 C 80 % 1018,6 hPa 0,0 l/m 13,2 km/h (3 Bft) W-NW 290 0 min 0,000 mm 0,0 UV-I 84 W/m 7,0 C 6,3 C 19,3 km/h (3 Bft) 98,11 %
11.04.2017 07:38 10,3 C 80 % 1018,7 hPa 0,0 l/m 13,3 km/h (3 Bft) W-SW 237 0 min 0,000 mm 0,0 UV-I 82 W/m 7,0 C 6,2 C 24,1 km/h (4 Bft) 95,74 %
11.04.2017 07:40 10,3 C 79 % 1018,7 hPa 0,0 l/m 14,3 km/h (3 Bft) W-SW 258 0 min 0,000 mm 0,0 UV-I 78 W/m 6,8 C 5,8 C 22,5 km/h (4 Bft) 91,49 %
11.04.2017 07:42 10,3 C 80 % 1018,7 hPa 0,0 l/m 11,4 km/h (2 Bft) W-NW 292 0 min 0,000 mm 0,0 UV-I 84 W/m 7,0 C 7,2 C 17,7 km/h (3 Bft) 97,73 %
11.04.2017 07:44 10,2 C 80 % 1018,7 hPa 0,0 l/m 13,5 km/h (3 Bft) W-NW 302 0 min 0,000 mm 0,0 UV-I 108 W/m 6,9 C 6,0 C 22,5 km/h (4 Bft) 96,00 %
11.04.2017 07:46 10,2 C 79 % 1018,7 hPa 0,0 l/m 14,9 km/h (3 Bft) W 259 2 min 0,000 mm 0,0 UV-I 146 W/m 6,7 C 5,4 C 24,1 km/h (4 Bft) 92,00 %
11.04.2017 07:48 10,2 C 79 % 1018,7 hPa 0,0 l/m 14,5 km/h (3 Bft) W 267 2 min 0,000 mm 0,0 UV-I 155 W/m 6,7 C 5,6 C 24,1 km/h (4 Bft) 97,56 %
11.04.2017 07:50 10,2 C 79 % 1018,7 hPa 0,0 l/m 10,8 km/h (2 Bft) W-SW 248 0 min 0,000 mm 0,0 UV-I 115 W/m 6,7 C 7,4 C 19,3 km/h (3 Bft) 96,23 %
11.04.2017 07:52 10,2 C 79 % 1018,8 hPa 0,0 l/m 13,7 km/h (3 Bft) W-SW 249 0 min 0,000 mm 0,0 UV-I 112 W/m 6,7 C 5,9 C 22,5 km/h (4 Bft) 92,68 %
11.04.2017 07:54 10,2 C 79 % 1018,9 hPa 0,0 l/m 17,1 km/h (3 Bft) W 260 0 min 0,000 mm 0,0 UV-I 117 W/m 6,7 C 4,5 C 25,7 km/h (4 Bft) 100,00 %
11.04.2017 07:56 10,2 C 79 % 1018,9 hPa 0,0 l/m 14,3 km/h (3 Bft) SW 217 0 min 0,000 mm 0,0 UV-I 106 W/m 6,7 C 5,7 C 20,9 km/h (4 Bft) 100,00 %
11.04.2017 07:58 10,2 C 79 % 1019,0 hPa 0,0 l/m 14,0 km/h (3 Bft) W 273 0 min 0,000 mm 0,0 UV-I 124 W/m 6,7 C 5,8 C 20,9 km/h (4 Bft) 90,57 %
11.04.2017 08:00 10,2 C 79 % 1019,1 hPa 0,0 l/m 17,5 km/h (3 Bft) SW 234 0 min 0,050 mm 0,0 UV-I 110 W/m 6,7 C 4,4 C 25,7 km/h (4 Bft) 97,44 %
11.04.2017 08:02 10,2 C 78 % 1019,2 hPa 0,0 l/m 13,1 km/h (3 Bft) W 261 0 min 0,000 mm 0,0 UV-I 97 W/m 6,5 C 6,2 C 19,3 km/h (3 Bft) 94,55 %
11.04.2017 08:04 10,2 C 79 % 1019,2 hPa 0,0 l/m 10,6 km/h (2 Bft) W-SW 252 0 min 0,000 mm 0,0 UV-I 92 W/m 6,7 C 7,5 C 17,7 km/h (3 Bft) 94,87 %
11.04.2017 08:06 10,2 C 79 % 1019,2 hPa 0,0 l/m 14,8 km/h (3 Bft) W-NW 297 0 min 0,000 mm 0,0 UV-I 77 W/m 6,7 C 5,5 C 22,5 km/h (4 Bft) 90,57 %
11.04.2017 08:08 10,1 C 79 % 1019,2 hPa 0,0 l/m 10,3 km/h (2 Bft) W 262 0 min 0,000 mm 0,0 UV-I 76 W/m 6,6 C 7,5 C 17,7 km/h (3 Bft) 89,47 %
11.04.2017 08:10 10,1 C 79 % 1019,2 hPa 0,0 l/m 10,9 km/h (2 Bft) W 265 0 min 0,000 mm 0,0 UV-I 84 W/m 6,6 C 7,2 C 16,1 km/h (3 Bft) 98,11 %
11.04.2017 08:12 10,1 C 79 % 1019,2 hPa 0,0 l/m 11,0 km/h (2 Bft) W 263 0 min 0,000 mm 0,0 UV-I 82 W/m 6,6 C 7,1 C 22,5 km/h (4 Bft) 97,87 %
11.04.2017 08:14 10,1 C 79 % 1019,2 hPa 0,0 l/m 12,6 km/h (3 Bft) W-NW 302 0 min 0,000 mm 0,0 UV-I 85 W/m 6,6 C 6,3 C 20,9 km/h (4 Bft) 97,56 %
11.04.2017 08:16 10,0 C 79 % 1019,3 hPa 0,0 l/m 8,6 km/h (2 Bft) W-NW 292 0 min 0,000 mm 0,0 UV-I 113 W/m 6,5 C 8,5 C 14,5 km/h (3 Bft) 92,45 %
11.04.2017 08:18 10,1 C 79 % 1019,2 hPa 0,0 l/m 15,4 km/h (3 Bft) W-SW 244 0 min 0,000 mm 0,0 UV-I 104 W/m 6,6 C 5,1 C 30,6 km/h (5 Bft) 92,68 %
11.04.2017 08:20 10,1 C 79 % 1019,4 hPa 0,0 l/m 14,6 km/h (3 Bft) W-SW 250 0 min 0,000 mm 0,0 UV-I 77 W/m 6,6 C 5,4 C 20,9 km/h (4 Bft) 87,50 %
11.04.2017 08:22 10,0 C 79 % 1019,3 hPa 0,0 l/m 14,3 km/h (3 Bft) W 259 0 min 0,000 mm 0,0 UV-I 70 W/m 6,5 C 5,4 C 19,3 km/h (3 Bft) 93,18 %
11.04.2017 08:24 10,0 C 79 % 1019,3 hPa 0,0 l/m 12,6 km/h (3 Bft) W-SW 256 0 min 0,000 mm 0,0 UV-I 66 W/m 6,5 C 6,2 C 25,7 km/h (4 Bft) 92,59 %
11.04.2017 08:26 9,9 C 79 % 1019,4 hPa 0,0 l/m 11,6 km/h (2 Bft) W-NW 290 0 min 0,000 mm 0,0 UV-I 63 W/m 6,4 C 6,6 C 20,9 km/h (4 Bft) 93,10 %
11.04.2017 08:28 9,9 C 79 % 1019,4 hPa 0,0 l/m 11,5 km/h (2 Bft) W-NW 300 0 min 0,000 mm 0,0 UV-I 59 W/m 6,4 C 6,7 C 16,1 km/h (3 Bft) 96,61 %
11.04.2017 08:30 9,9 C 79 % 1019,5 hPa 0,0 l/m 12,5 km/h (3 Bft) W 279 0 min 0,000 mm 0,0 UV-I 58 W/m 6,4 C 6,1 C 19,3 km/h (3 Bft) 92,11 %
11.04.2017 08:32 9,9 C 79 % 1019,5 hPa 0,0 l/m 12,8 km/h (3 Bft) W 260 0 min 0,000 mm 0,0 UV-I 56 W/m 6,4 C 6,0 C 22,5 km/h (4 Bft) 93,62 %
11.04.2017 08:34 9,9 C 79 % 1019,6 hPa 0,0 l/m 13,8 km/h (3 Bft) W-SW 250 0 min 0,000 mm 0,0 UV-I 54 W/m 6,4 C 5,5 C 25,7 km/h (4 Bft) 90,57 %
11.04.2017 08:36 9,8 C 79 % 1019,6 hPa 0,0 l/m 10,7 km/h (2 Bft) W 273 0 min 0,000 mm 0,0 UV-I 68 W/m 6,3 C 7,0 C 19,3 km/h (3 Bft) 95,74 %
11.04.2017 08:38 9,8 C 80 % 1019,6 hPa 0,0 l/m 9,5 km/h (2 Bft) W-SW 252 0 min 0,000 mm 0,0 UV-I 76 W/m 6,5 C 7,7 C 14,5 km/h (3 Bft) 97,44 %
11.04.2017 08:40 9,8 C 80 % 1019,6 hPa 0,0 l/m 10,6 km/h (2 Bft) W 261 0 min 0,000 mm 0,0 UV-I 83 W/m 6,5 C 7,0 C 17,7 km/h (3 Bft) 96,00 %
11.04.2017 08:42 9,8 C 80 % 1019,6 hPa 0,0 l/m 7,6 km/h (2 Bft) W-SW 254 0 min 0,000 mm 0,0 UV-I 74 W/m 6,5 C 8,9 C 14,5 km/h (3 Bft) 98,11 %
11.04.2017 08:44 9,8 C 80 % 1019,6 hPa 0,0 l/m 8,5 km/h (2 Bft) W-SW 255 0 min 0,000 mm 0,0 UV-I 69 W/m 6,5 C 8,3 C 19,3 km/h (3 Bft) 92,11 %
11.04.2017 08:46 9,8 C 80 % 1019,6 hPa 0,0 l/m 10,3 km/h (2 Bft) W 259 0 min 0,000 mm 0,0 UV-I 67 W/m 6,5 C 7,2 C 19,3 km/h (3 Bft) 98,11 %
11.04.2017 08:48 9,7 C 80 % 1019,7 hPa 0,0 l/m 10,2 km/h (2 Bft) W-SW 239 0 min 0,000 mm 0,0 UV-I 72 W/m 6,4 C 7,1 C 19,3 km/h (3 Bft) 94,00 %
11.04.2017 08:50 9,7 C 80 % 1019,7 hPa 0,0 l/m 15,3 km/h (3 Bft) W 273 0 min 0,000 mm 0,0 UV-I 83 W/m 6,4 C 4,6 C 25,7 km/h (4 Bft) 97,14 %
11.04.2017 08:52 9,7 C 79 % 1019,7 hPa 0,0 l/m 13,4 km/h (3 Bft) W-SW 257 0 min 0,000 mm 0,0 UV-I 97 W/m 6,2 C 5,5 C 19,3 km/h (3 Bft) 98,00 %
11.04.2017 08:54 9,7 C 79 % 1019,7 hPa 0,0 l/m 13,6 km/h (3 Bft) W 262 0 min 0,000 mm 0,0 UV-I 80 W/m 6,2 C 5,4 C 24,1 km/h (4 Bft) 93,62 %
11.04.2017 08:56 9,7 C 79 % 1019,8 hPa 0,0 l/m 9,9 km/h (2 Bft) W-NW 296 0 min 0,000 mm 0,0 UV-I 83 W/m 6,2 C 7,3 C 20,9 km/h (4 Bft) 95,45 %
11.04.2017 08:58 9,7 C 79 % 1019,8 hPa 0,0 l/m 10,6 km/h (2 Bft) W-SW 237 0 min 0,000 mm 0,0 UV-I 100 W/m 6,2 C 6,9 C 24,1 km/h (4 Bft) 96,23 %
11.04.2017 09:00 9,7 C 80 % 1019,8 hPa 0,0 l/m 13,9 km/h (3 Bft) W-SW 258 0 min 0,077 mm 0,0 UV-I 112 W/m 6,4 C 5,3 C 24,1 km/h (4 Bft) 95,45 %
11.04.2017 09:02 9,7 C 79 % 1019,8 hPa 0,0 l/m 14,4 km/h (3 Bft) W-NW 298 0 min 0,000 mm 0,0 UV-I 128 W/m 6,2 C 5,0 C 24,1 km/h (4 Bft) 92,68 %
11.04.2017 09:04 9,7 C 79 % 1019,9 hPa 0,0 l/m 10,2 km/h (2 Bft) SW 223 0 min 0,000 mm 0,0 UV-I 137 W/m 6,2 C 7,1 C 16,1 km/h (3 Bft) 96,23 %
11.04.2017 09:06 9,7 C 80 % 1019,9 hPa 0,0 l/m 15,3 km/h (3 Bft) W 275 0 min 0,000 mm 0,2 UV-I 138 W/m 6,4 C 4,6 C 27,4 km/h (4 Bft) 96,00 %
11.04.2017 09:08 9,8 C 79 % 1019,9 hPa 0,0 l/m 15,5 km/h (3 Bft) W 263 0 min 0,000 mm 0,0 UV-I 130 W/m 6,3 C 4,7 C 22,5 km/h (4 Bft) 97,37 %
11.04.2017 09:10 9,8 C 78 % 1019,9 hPa 0,0 l/m 14,4 km/h (3 Bft) W-SW 239 0 min 0,000 mm 0,4 UV-I 134 W/m 6,1 C 5,2 C 25,7 km/h (4 Bft) 96,43 %
11.04.2017 09:12 9,8 C 78 % 1020,0 hPa 0,0 l/m 13,4 km/h (3 Bft) W-SW 243 0 min 0,000 mm 0,5 UV-I 144 W/m 6,1 C 5,6 C 25,7 km/h (4 Bft) 95,12 %
11.04.2017 09:14 9,8 C 78 % 1020,0 hPa 0,0 l/m 15,9 km/h (3 Bft) W-SW 258 0 min 0,000 mm 0,6 UV-I 158 W/m 6,1 C 4,5 C 25,7 km/h (4 Bft) 96,23 %
11.04.2017 09:16 9,8 C 78 % 1020,0 hPa 0,0 l/m 14,3 km/h (3 Bft) W 274 0 min 0,000 mm 0,6 UV-I 172 W/m 6,1 C 5,2 C 25,7 km/h (4 Bft) 94,00 %
11.04.2017 09:18 9,8 C 78 % 1020,0 hPa 0,0 l/m 11,7 km/h (2 Bft) W-SW 242 0 min 0,000 mm 0,7 UV-I 161 W/m 6,1 C 6,4 C 16,1 km/h (3 Bft) 97,62 %
11.04.2017 09:20 9,8 C 78 % 1020,0 hPa 0,0 l/m 11,6 km/h (2 Bft) W-SW 246 0 min 0,000 mm 0,7 UV-I 177 W/m 6,1 C 6,5 C 19,3 km/h (3 Bft) 96,00 %
11.04.2017 09:22 9,8 C 77 % 1020,0 hPa 0,0 l/m 14,9 km/h (3 Bft) W 271 0 min 0,000 mm 0,8 UV-I 196 W/m 6,0 C 4,9 C 27,4 km/h (4 Bft) 97,73 %
11.04.2017 09:24 9,8 C 77 % 1020,1 hPa 0,0 l/m 10,4 km/h (2 Bft) W-SW 250 0 min 0,000 mm 0,9 UV-I 216 W/m 6,0 C 7,1 C 17,7 km/h (3 Bft) 98,00 %
11.04.2017 09:26 9,8 C 76 % 1020,0 hPa 0,0 l/m 12,0 km/h (2 Bft) W 269 0 min 0,000 mm 0,9 UV-I 201 W/m 5,8 C 6,3 C 20,9 km/h (4 Bft) 97,56 %
11.04.2017 09:28 9,9 C 77 % 1020,1 hPa 0,0 l/m 7,6 km/h (2 Bft) W-NW 287 0 min 0,000 mm 1,0 UV-I 225 W/m 6,1 C 9,0 C 14,5 km/h (3 Bft) 97,73 %
11.04.2017 09:30 9,9 C 75 % 1020,0 hPa 0,0 l/m 10,9 km/h (2 Bft) NW 316 2 min 0,000 mm 1,1 UV-I 311 W/m 5,7 C 7,0 C 22,5 km/h (4 Bft) 98,11 %
11.04.2017 09:32 10,0 C 75 % 1020,1 hPa 0,0 l/m 6,7 km/h (2 Bft) W-SW 257 2 min 0,000 mm 1,1 UV-I 316 W/m 5,8 C 9,8 C 9,7 km/h (2 Bft) 100,00 %
11.04.2017 09:34 10,1 C 75 % 1020,1 hPa 0,0 l/m 7,5 km/h (2 Bft) W-NW 282 2 min 0,000 mm 1,1 UV-I 357 W/m 5,9 C 9,3 C 14,5 km/h (3 Bft) 100,00 %
11.04.2017 09:36 10,3 C 74 % 1020,1 hPa 0,0 l/m 8,6 km/h (2 Bft) S-SW 213 2 min 0,000 mm 1,2 UV-I 373 W/m 5,9 C 8,8 C 14,5 km/h (3 Bft) 100,00 %
11.04.2017 09:38 10,3 C 74 % 1020,1 hPa 0,0 l/m 6,1 km/h (2 Bft) W-SW 247 2 min 0,000 mm 1,1 UV-I 332 W/m 5,9 C 10,3 C 16,1 km/h (3 Bft) 100,00 %
11.04.2017 09:40 10,3 C 73 % 1020,2 hPa 0,0 l/m 9,1 km/h (2 Bft) W-SW 250 0 min 0,000 mm 1,1 UV-I 274 W/m 5,7 C 8,5 C 17,7 km/h (3 Bft) 100,00 %
11.04.2017 09:42 10,4 C 73 % 1020,2 hPa 0,0 l/m 7,4 km/h (2 Bft) W 263 0 min 0,000 mm 1,1 UV-I 232 W/m 5,8 C 9,7 C 17,7 km/h (3 Bft) 98,11 %
11.04.2017 09:44 10,4 C 73 % 1020,3 hPa 0,0 l/m 7,6 km/h (2 Bft) W-NW 285 0 min 0,000 mm 1,2 UV-I 253 W/m 5,8 C 9,5 C 14,5 km/h (3 Bft) 100,00 %
11.04.2017 09:46 10,4 C 71 % 1020,4 hPa 0,0 l/m 14,6 km/h (3 Bft) W 271 2 min 0,000 mm 1,3 UV-I 329 W/m 5,4 C 5,8 C 24,1 km/h (4 Bft) 100,00 %
11.04.2017 09:48 10,4 C 67 % 1020,4 hPa 0,0 l/m 17,9 km/h (3 Bft) W 281 2 min 0,000 mm 1,3 UV-I 394 W/m 4,5 C 4,5 C 25,7 km/h (4 Bft) 100,00 %
11.04.2017 09:50 10,4 C 67 % 1020,5 hPa 0,0 l/m 15,2 km/h (3 Bft) W 260 0 min 0,000 mm 1,2 UV-I 249 W/m 4,5 C 5,5 C 24,1 km/h (4 Bft) 100,00 %
11.04.2017 09:52 10,3 C 66 % 1020,5 hPa 0,0 l/m 13,3 km/h (3 Bft) W-SW 247 0 min 0,000 mm 1,3 UV-I 253 W/m 4,2 C 6,2 C 20,9 km/h (4 Bft) 100,00 %
11.04.2017 09:54 10,3 C 65 % 1020,4 hPa 0,0 l/m 14,9 km/h (3 Bft) W 264 0 min 0,000 mm 1,3 UV-I 248 W/m 4,0 C 5,5 C 32,2 km/h (5 Bft) 100,00 %
11.04.2017 09:56 10,3 C 65 % 1020,5 hPa 0,0 l/m 18,8 km/h (3 Bft) W 264 2 min 0,000 mm 1,5 UV-I 346 W/m 4,0 C 4,1 C 32,2 km/h (5 Bft) 100,00 %
11.04.2017 09:58 10,4 C 65 % 1020,6 hPa 0,0 l/m 16,3 km/h (3 Bft) W-SW 256 2 min 0,000 mm 1,6 UV-I 426 W/m 4,1 C 5,1 C 29,0 km/h (5 Bft) 100,00 %
11.04.2017 10:00 10,4 C 63 % 1020,6 hPa 0,0 l/m 17,7 km/h (3 Bft) W-SW 252 0 min 0,152 mm 1,3 UV-I 297 W/m 3,7 C 4,6 C 27,4 km/h (4 Bft) 96,00 %
11.04.2017 10:02 10,4 C 63 % 1020,6 hPa 0,0 l/m 18,2 km/h (3 Bft) W-SW 248 0 min 0,000 mm 1,4 UV-I 249 W/m 3,7 C 4,4 C 29,0 km/h (5 Bft) 96,00 %
11.04.2017 10:04 10,4 C 63 % 1020,5 hPa 0,0 l/m 16,8 km/h (3 Bft) W 281 2 min 0,000 mm 1,7 UV-I 385 W/m 3,7 C 4,9 C 29,0 km/h (5 Bft) 93,62 %
11.04.2017 10:06 10,5 C 63 % 1020,6 hPa 0,0 l/m 9,0 km/h (2 Bft) W-SW 258 2 min 0,000 mm 1,7 UV-I 565 W/m 3,8 C 8,7 C 16,1 km/h (3 Bft) 97,56 %
11.04.2017 10:08 10,7 C 64 % 1020,8 hPa 0,0 l/m 6,7 km/h (2 Bft) W-SW 248 2 min 0,000 mm 1,5 UV-I 549 W/m 4,2 C 10,5 C 12,9 km/h (3 Bft) 97,73 %
11.04.2017 10:10 10,6 C 62 % 1020,7 hPa 0,0 l/m 13,7 km/h (3 Bft) W-NW 288 0 min 0,000 mm 1,6 UV-I 200 W/m 3,6 C 6,4 C 24,1 km/h (4 Bft) 98,21 %
11.04.2017 10:12 10,6 C 62 % 1020,8 hPa 0,0 l/m 11,6 km/h (2 Bft) W-SW 252 2 min 0,000 mm 2,0 UV-I 523 W/m 3,6 C 7,4 C 17,7 km/h (3 Bft) 96,15 %
11.04.2017 10:14 10,7 C 61 % 1020,8 hPa 0,0 l/m 16,0 km/h (3 Bft) W-NW 285 2 min 0,000 mm 2,0 UV-I 636 W/m 3,5 C 5,6 C 29,0 km/h (5 Bft) 98,53 %
11.04.2017 10:16 10,8 C 60 % 1020,8 hPa 0,0 l/m 14,7 km/h (3 Bft) W 275 2 min 0,000 mm 2,1 UV-I 643 W/m 3,4 C 6,2 C 27,4 km/h (4 Bft) 96,00 %
11.04.2017 10:18 10,9 C 59 % 1020,8 hPa 0,0 l/m 12,6 km/h (3 Bft) W 270 2 min 0,000 mm 1,8 UV-I 507 W/m 3,2 C 7,3 C 27,4 km/h (4 Bft) 97,56 %
11.04.2017 10:20 10,9 C 60 % 1020,9 hPa 0,0 l/m 13,9 km/h (3 Bft) W-SW 257 2 min 0,000 mm 1,9 UV-I 383 W/m 3,4 C 6,7 C 19,3 km/h (3 Bft) 98,11 %
11.04.2017 10:22 10,9 C 59 % 1020,9 hPa 0,0 l/m 14,7 km/h (3 Bft) S-SW 207 2 min 0,000 mm 2,0 UV-I 652 W/m 3,2 C 6,3 C 24,1 km/h (4 Bft) 97,37 %
11.04.2017 10:24 11,0 C 59 % 1020,9 hPa 0,0 l/m 16,5 km/h (3 Bft) SW 236 2 min 0,000 mm 2,0 UV-I 637 W/m 3,3 C 5,8 C 27,4 km/h (4 Bft) 98,11 %
11.04.2017 10:26 11,0 C 59 % 1020,9 hPa 0,0 l/m 6,0 km/h (2 Bft) W-SW 244 2 min 0,000 mm 2,2 UV-I 667 W/m 3,3 C 11,0 C 11,3 km/h (2 Bft) 95,12 %
11.04.2017 10:28 11,3 C 61 % 1020,9 hPa 0,0 l/m 6,4 km/h (2 Bft) N-NW 328 2 min 0,000 mm 2,3 UV-I 663 W/m 4,1 C 11,3 C 14,5 km/h (3 Bft) 98,00 %
11.04.2017 10:30 11,4 C 59 % 1021,0 hPa 0,0 l/m 10,8 km/h (2 Bft) W 265 2 min 0,000 mm 2,0 UV-I 540 W/m 3,7 C 8,7 C 22,5 km/h (4 Bft) 100,00 %
11.04.2017 10:32 11,4 C 58 % 1021,0 hPa 0,0 l/m 15,9 km/h (3 Bft) W 263 2 min 0,000 mm 2,2 UV-I 618 W/m 3,4 C 6,5 C 29,0 km/h (5 Bft) 100,00 %
11.04.2017 10:34 11,4 C 58 % 1020,9 hPa 0,0 l/m 19,6 km/h (3 Bft) W 272 2 min 0,000 mm 2,4 UV-I 688 W/m 3,4 C 5,2 C 33,8 km/h (5 Bft) 100,00 %
11.04.2017 10:36 11,4 C 57 % 1021,0 hPa 0,0 l/m 18,3 km/h (3 Bft) W 270 2 min 0,000 mm 2,4 UV-I 685 W/m 3,2 C 5,6 C 29,0 km/h (5 Bft) 100,00 %
11.04.2017 10:38 11,6 C 58 % 1021,0 hPa 0,0 l/m 16,2 km/h (3 Bft) W-SW 254 2 min 0,000 mm 2,5 UV-I 726 W/m 3,6 C 6,6 C 22,5 km/h (4 Bft) 100,00 %
11.04.2017 10:40 11,7 C 57 % 1021,0 hPa 0,0 l/m 16,9 km/h (3 Bft) W-SW 250 2 min 0,000 mm 2,6 UV-I 741 W/m 3,5 C 6,5 C 25,7 km/h (4 Bft) 98,00 %
11.04.2017 10:42 11,8 C 57 % 1021,0 hPa 0,0 l/m 18,5 km/h (3 Bft) W 267 2 min 0,000 mm 2,6 UV-I 754 W/m 3,6 C 6,1 C 27,4 km/h (4 Bft) 100,00 %
11.04.2017 10:44 11,8 C 56 % 1021,0 hPa 0,0 l/m 16,9 km/h (3 Bft) W-SW 248 2 min 0,000 mm 2,7 UV-I 775 W/m 3,3 C 6,6 C 24,1 km/h (4 Bft) 97,87 %
11.04.2017 10:46 11,9 C 58 % 1021,1 hPa 0,0 l/m 9,9 km/h (2 Bft) W-SW 256 2 min 0,000 mm 2,7 UV-I 806 W/m 3,9 C 9,7 C 19,3 km/h (3 Bft) 100,00 %
11.04.2017 10:48 12,0 C 55 % 1021,1 hPa 0,0 l/m 11,6 km/h (2 Bft) W 277 2 min 0,000 mm 2,7 UV-I 806 W/m 3,2 C 9,0 C 24,1 km/h (4 Bft) 100,00 %
11.04.2017 10:50 11,9 C 57 % 1021,0 hPa 0,0 l/m 15,8 km/h (3 Bft) W-SW 248 2 min 0,000 mm 2,5 UV-I 803 W/m 3,7 C 7,1 C 22,5 km/h (4 Bft) 97,73 %
11.04.2017 10:52 11,9 C 56 % 1021,1 hPa 0,0 l/m 15,8 km/h (3 Bft) W-SW 255 2 min 0,000 mm 2,3 UV-I 803 W/m 3,4 C 7,1 C 30,6 km/h (5 Bft) 100,00 %
11.04.2017 10:54 11,9 C 57 % 1021,1 hPa 0,0 l/m 20,4 km/h (4 Bft) W-SW 240 2 min 0,000 mm 2,4 UV-I 680 W/m 3,7 C 5,6 C 30,6 km/h (5 Bft) 98,11 %
11.04.2017 10:56 11,9 C 57 % 1021,1 hPa 0,0 l/m 19,0 km/h (3 Bft) W-SW 256 2 min 0,000 mm 2,4 UV-I 633 W/m 3,7 C 6,0 C 22,5 km/h (4 Bft) 100,00 %
11.04.2017 10:58 12,0 C 57 % 1021,1 hPa 0,0 l/m 11,9 km/h (2 Bft) W 261 2 min 0,000 mm 2,3 UV-I 621 W/m 3,8 C 8,9 C 20,9 km/h (4 Bft) 100,00 %
11.04.2017 11:00 11,9 C 55 % 1021,1 hPa 0,0 l/m 17,0 km/h (3 Bft) W 279 0 min 0,356 mm 2,0 UV-I 353 W/m 3,2 C 6,7 C 35,4 km/h (5 Bft) 100,00 %
11.04.2017 11:02 11,7 C 56 % 1021,2 hPa 0,0 l/m 13,2 km/h (3 Bft) W-NW 296 0 min 0,000 mm 1,8 UV-I 330 W/m 3,2 C 7,9 C 30,6 km/h (5 Bft) 100,00 %
11.04.2017 11:04 11,5 C 57 % 1021,2 hPa 0,0 l/m 4,2 km/h (1 Bft) W-NW 292 0 min 0,000 mm 2,1 UV-I 323 W/m 3,3 C 11,5 C 6,4 km/h (2 Bft) 100,00 %
11.04.2017 11:06 11,4 C 57 % 1021,2 hPa 0,0 l/m 9,2 km/h (2 Bft) W 271 0 min 0,000 mm 2,4 UV-I 330 W/m 3,2 C 9,6 C 17,7 km/h (3 Bft) 100,00 %
11.04.2017 11:08 11,4 C 58 % 1021,3 hPa 0,0 l/m 14,6 km/h (3 Bft) W 266 2 min 0,000 mm 2,3 UV-I 596 W/m 3,4 C 7,0 C 20,9 km/h (4 Bft) 100,00 %
11.04.2017 11:10 11,4 C 57 % 1021,2 hPa 0,0 l/m 16,0 km/h (3 Bft) W-NW 285 2 min 0,000 mm 2,6 UV-I 457 W/m 3,2 C 6,4 C 24,1 km/h (4 Bft) 100,00 %
11.04.2017 11:12 11,4 C 58 % 1021,2 hPa 0,0 l/m 11,7 km/h (2 Bft) SW 229 2 min 0,000 mm 2,7 UV-I 731 W/m 3,4 C 8,3 C 17,7 km/h (3 Bft) 98,08 %
11.04.2017 11:14 11,7 C 58 % 1021,3 hPa 0,0 l/m 12,5 km/h (3 Bft) W-SW 258 2 min 0,000 mm 2,6 UV-I 724 W/m 3,7 C 8,2 C 19,3 km/h (3 Bft) 100,00 %
11.04.2017 11:16 11,7 C 57 % 1021,3 hPa 0,0 l/m 18,8 km/h (3 Bft) W 271 2 min 0,000 mm 2,8 UV-I 641 W/m 3,5 C 5,9 C 30,6 km/h (5 Bft) 100,00 %
11.04.2017 11:18 11,7 C 56 % 1021,3 hPa 0,0 l/m 17,2 km/h (3 Bft) W-SW 250 2 min 0,000 mm 2,7 UV-I 614 W/m 3,2 C 6,4 C 32,2 km/h (5 Bft) 100,00 %
11.04.2017 11:20 11,6 C 56 % 1021,4 hPa 0,0 l/m 14,4 km/h (3 Bft) W-NW 302 2 min 0,000 mm 3,2 UV-I 743 W/m 3,1 C 7,3 C 29,0 km/h (5 Bft) 96,00 %
11.04.2017 11:22 11,8 C 58 % 1021,4 hPa 0,0 l/m 12,0 km/h (2 Bft) W-SW 254 2 min 0,000 mm 3,2 UV-I 827 W/m 3,8 C 8,6 C 19,3 km/h (3 Bft) 100,00 %
11.04.2017 11:24 12,0 C 57 % 1021,3 hPa 0,0 l/m 12,5 km/h (3 Bft) S-SO 149 2 min 0,000 mm 3,2 UV-I 810 W/m 3,8 C 8,6 C 19,3 km/h (3 Bft) 100,00 %
11.04.2017 11:26 12,3 C 58 % 1021,4 hPa 0,0 l/m 6,7 km/h (2 Bft) N-NW 336 2 min 0,000 mm 3,3 UV-I 828 W/m 4,3 C 12,1 C 11,3 km/h (2 Bft) 100,00 %
11.04.2017 11:28 12,4 C 58 % 1021,3 hPa 0,0 l/m 8,4 km/h (2 Bft) W 263 2 min 0,000 mm 3,1 UV-I 743 W/m 4,4 C 11,1 C 16,1 km/h (3 Bft) 98,00 %
11.04.2017 11:30 12,3 C 54 % 1021,5 hPa 0,0 l/m 18,6 km/h (3 Bft) W-NW 291 2 min 0,000 mm 2,7 UV-I 778 W/m 3,3 C 6,7 C 35,4 km/h (5 Bft) 96,00 %
11.04.2017 11:32 12,1 C 55 % 1021,4 hPa 0,0 l/m 17,8 km/h (3 Bft) NW 306 2 min 0,000 mm 2,2 UV-I 669 W/m 3,3 C 6,7 C 27,4 km/h (4 Bft) 97,56 %
11.04.2017 11:34 11,8 C 56 % 1021,5 hPa 0,0 l/m 11,5 km/h (2 Bft) W-SW 252 2 min 0,000 mm 2,6 UV-I 449 W/m 3,3 C 8,8 C 20,9 km/h (4 Bft) 100,00 %
11.04.2017 11:36 11,8 C 55 % 1021,7 hPa 0,0 l/m 20,6 km/h (4 Bft) W 279 2 min 0,000 mm 3,0 UV-I 719 W/m 3,1 C 5,4 C 32,2 km/h (5 Bft) 100,00 %
11.04.2017 11:38 11,9 C 55 % 1021,4 hPa 0,0 l/m 18,4 km/h (3 Bft) SW 224 2 min 0,000 mm 3,2 UV-I 740 W/m 3,2 C 6,2 C 30,6 km/h (5 Bft) 100,00 %
11.04.2017 11:40 12,1 C 54 % 1021,6 hPa 0,0 l/m 21,9 km/h (4 Bft) W 263 2 min 0,000 mm 3,4 UV-I 953 W/m 3,1 C 5,5 C 30,6 km/h (5 Bft) 90,91 %
11.04.2017 11:42 12,2 C 55 % 1021,6 hPa 0,0 l/m 14,6 km/h (3 Bft) W-SW 250 2 min 0,000 mm 3,3 UV-I 842 W/m 3,4 C 8,0 C 25,7 km/h (4 Bft) 98,21 %
11.04.2017 11:44 12,2 C 53 % 1021,4 hPa 0,0 l/m 12,8 km/h (3 Bft) SW 231 2 min 0,000 mm 3,4 UV-I 819 W/m 2,9 C 8,7 C 30,6 km/h (5 Bft) 97,56 %
11.04.2017 11:46 12,2 C 55 % 1021,5 hPa 0,0 l/m 14,9 km/h (3 Bft) W-NW 300 2 min 0,000 mm 3,4 UV-I 872 W/m 3,4 C 7,8 C 22,5 km/h (4 Bft) 95,74 %
11.04.2017 11:49 12,3 C 56 % 1021,5 hPa 0,0 l/m 10,2 km/h (2 Bft) W-SW 244 3 min 0,000 mm 2,9 UV-I 863 W/m 3,8 C 10,0 C 22,5 km/h (4 Bft) 95,00 %
11.04.2017 11:50 12,3 C 56 % 1021,5 hPa 0,0 l/m 15,6 km/h (3 Bft) W-SW 248 1 min 0,000 mm 3,2 UV-I 762 W/m 3,8 C 7,7 C 22,5 km/h (4 Bft) 94,12 %
11.04.2017 11:52 12,3 C 54 % 1021,5 hPa 0,0 l/m 24,8 km/h (4 Bft) W-SW 250 2 min 0,000 mm 3,2 UV-I 735 W/m 3,3 C 5,0 C 35,4 km/h (5 Bft) 95,24 %
11.04.2017 11:54 12,2 C 53 % 1021,5 hPa 0,0 l/m 24,1 km/h (4 Bft) W-SW 240 2 min 0,000 mm 3,2 UV-I 752 W/m 2,9 C 5,0 C 38,6 km/h (5 Bft) 96,15 %
11.04.2017 11:56 12,2 C 54 % 1021,5 hPa 0,0 l/m 17,5 km/h (3 Bft) W 269 2 min 0,000 mm 3,3 UV-I 790 W/m 3,2 C 6,9 C 25,7 km/h (4 Bft) 94,87 %
11.04.2017 11:58 12,2 C 52 % 1021,6 hPa 0,0 l/m 19,9 km/h (4 Bft) W 260 2 min 0,000 mm 3,2 UV-I 819 W/m 2,6 C 6,2 C 30,6 km/h (5 Bft) 86,00 %
11.04.2017 12:00 12,1 C 53 % 1021,6 hPa 0,0 l/m 24,7 km/h (4 Bft) W-NW 286 2 min 0,406 mm 3,0 UV-I 792 W/m 2,8 C 4,7 C 37,0 km/h (5 Bft) 96,08 %
11.04.2017 12:02 12,1 C 54 % 1021,6 hPa 0,0 l/m 17,5 km/h (3 Bft) W 281 2 min 0,000 mm 3,2 UV-I 747 W/m 3,1 C 6,8 C 32,2 km/h (5 Bft) 96,00 %
11.04.2017 12:04 12,1 C 52 % 1021,6 hPa 0,0 l/m 19,5 km/h (3 Bft) W-SW 257 2 min 0,000 mm 3,3 UV-I 767 W/m 2,5 C 6,1 C 27,4 km/h (4 Bft) 90,91 %
11.04.2017 12:06 12,1 C 53 % 1021,6 hPa 0,0 l/m 17,2 km/h (3 Bft) W-SW 253 2 min 0,000 mm 3,3 UV-I 800 W/m 2,8 C 6,9 C 33,8 km/h (5 Bft) 95,12 %
11.04.2017 12:08 12,2 C 56 % 1021,6 hPa 0,0 l/m 13,3 km/h (3 Bft) W 259 2 min 0,000 mm 3,4 UV-I 828 W/m 3,7 C 8,5 C 17,7 km/h (3 Bft) 95,45 %
11.04.2017 12:10 12,3 C 52 % 1021,6 hPa 0,0 l/m 16,6 km/h (3 Bft) W-NW 284 2 min 0,000 mm 3,4 UV-I 886 W/m 2,7 C 7,3 C 27,4 km/h (4 Bft) 97,87 %
11.04.2017 12:12 12,2 C 52 % 1021,7 hPa 0,0 l/m 11,5 km/h (2 Bft) W 273 2 min 0,000 mm 3,2 UV-I 915 W/m 2,6 C 9,3 C 22,5 km/h (4 Bft) 100,00 %
11.04.2017 12:14 12,2 C 52 % 1021,7 hPa 0,0 l/m 13,5 km/h (3 Bft) W 273 2 min 0,000 mm 3,6 UV-I 844 W/m 2,6 C 8,4 C 24,1 km/h (4 Bft) 96,00 %
11.04.2017 12:16 12,1 C 53 % 1021,7 hPa 0,0 l/m 12,0 km/h (2 Bft) W 261 2 min 0,000 mm 2,9 UV-I 687 W/m 2,8 C 8,9 C 20,9 km/h (4 Bft) 100,00 %
11.04.2017 12:18 11,9 C 53 % 1021,7 hPa 0,0 l/m 11,3 km/h (2 Bft) N-NW 327 2 min 0,000 mm 3,0 UV-I 444 W/m 2,6 C 9,0 C 20,9 km/h (4 Bft) 98,21 %
11.04.2017 12:20 11,8 C 52 % 1021,7 hPa 0,0 l/m 11,7 km/h (2 Bft) W-NW 292 2 min 0,000 mm 3,1 UV-I 716 W/m 2,3 C 8,7 C 22,5 km/h (4 Bft) 100,00 %
11.04.2017 12:22 11,8 C 54 % 1021,8 hPa 0,0 l/m 12,2 km/h (2 Bft) W 274 2 min 0,000 mm 2,5 UV-I 708 W/m 2,8 C 8,5 C 20,9 km/h (4 Bft) 97,73 %
11.04.2017 12:24 11,9 C 54 % 1021,8 hPa 0,0 l/m 10,2 km/h (2 Bft) W-SW 246 2 min 0,000 mm 2,7 UV-I 474 W/m 2,9 C 9,6 C 19,3 km/h (3 Bft) 98,00 %
11.04.2017 12:26 11,8 C 53 % 1021,8 hPa 0,0 l/m 18,5 km/h (3 Bft) W-NW 292 2 min 0,000 mm 3,3 UV-I 493 W/m 2,5 C 6,1 C 30,6 km/h (5 Bft) 97,56 %
11.04.2017 12:28 11,8 C 53 % 1021,9 hPa 0,0 l/m 14,2 km/h (3 Bft) W-SW 257 2 min 0,000 mm 3,4 UV-I 809 W/m 2,5 C 7,6 C 25,7 km/h (4 Bft) 100,00 %
11.04.2017 12:30 11,9 C 54 % 1021,7 hPa 0,0 l/m 12,0 km/h (2 Bft) W-NW 288 2 min 0,000 mm 3,6 UV-I 834 W/m 2,9 C 8,7 C 20,9 km/h (4 Bft) 98,46 %
11.04.2017 12:32 12,2 C 54 % 1021,8 hPa 0,0 l/m 21,7 km/h (4 Bft) W-SW 249 2 min 0,000 mm 3,6 UV-I 805 W/m 3,2 C 5,6 C 30,6 km/h (5 Bft) 98,11 %
11.04.2017 12:34 12,3 C 51 % 1021,8 hPa 0,0 l/m 18,7 km/h (3 Bft) W-SW 248 2 min 0,000 mm 3,7 UV-I 833 W/m 2,5 C 6,7 C 30,6 km/h (5 Bft) 100,00 %
11.04.2017 12:36 12,4 C 52 % 1021,8 hPa 0,0 l/m 13,0 km/h (3 Bft) W-SW 242 2 min 0,000 mm 3,6 UV-I 817 W/m 2,8 C 8,8 C 24,1 km/h (4 Bft) 98,11 %
11.04.2017 12:38 12,3 C 50 % 1021,9 hPa 0,0 l/m 20,6 km/h (4 Bft) W-SW 246 2 min 0,000 mm 3,4 UV-I 723 W/m 2,2 C 6,1 C 27,4 km/h (4 Bft) 97,73 %
11.04.2017 12:40 12,2 C 52 % 1021,8 hPa 0,0 l/m 17,6 km/h (3 Bft) W 279 2 min 0,000 mm 3,5 UV-I 729 W/m 2,6 C 6,9 C 27,4 km/h (4 Bft) 98,11 %
11.04.2017 12:42 12,3 C 52 % 1021,8 hPa 0,0 l/m 18,6 km/h (3 Bft) W-NW 293 2 min 0,000 mm 3,6 UV-I 792 W/m 2,7 C 6,7 C 27,4 km/h (4 Bft) 97,37 %
11.04.2017 12:44 12,3 C 52 % 1021,7 hPa 0,0 l/m 14,9 km/h (3 Bft) W-SW 239 2 min 0,000 mm 3,7 UV-I 837 W/m 2,7 C 8,0 C 27,4 km/h (4 Bft) 98,11 %
11.04.2017 12:46 12,4 C 53 % 1021,8 hPa 0,0 l/m 7,1 km/h (2 Bft) W 277 2 min 0,000 mm 3,5 UV-I 797 W/m 3,1 C 11,9 C 14,5 km/h (3 Bft) 97,87 %
11.04.2017 12:48 12,4 C 52 % 1021,7 hPa 0,0 l/m 15,3 km/h (3 Bft) W 275 2 min 0,000 mm 3,6 UV-I 743 W/m 2,8 C 7,9 C 27,4 km/h (4 Bft) 96,55 %
11.04.2017 12:50 12,4 C 50 % 1021,7 hPa 0,0 l/m 17,5 km/h (3 Bft) W-SW 242 2 min 0,000 mm 3,7 UV-I 838 W/m 2,3 C 7,2 C 27,4 km/h (4 Bft) 98,53 %
11.04.2017 12:52 12,5 C 51 % 1021,7 hPa 0,0 l/m 12,5 km/h (3 Bft) W-SW 250 2 min 0,000 mm 3,8 UV-I 855 W/m 2,6 C 9,2 C 25,7 km/h (4 Bft) 97,73 %
11.04.2017 12:54 12,6 C 52 % 1021,7 hPa 0,0 l/m 15,6 km/h (3 Bft) W 259 2 min 0,000 mm 3,7 UV-I 809 W/m 3,0 C 8,1 C 25,7 km/h (4 Bft) 97,56 %
11.04.2017 12:56 12,6 C 50 % 1021,7 hPa 0,0 l/m 19,5 km/h (3 Bft) W 280 2 min 0,000 mm 3,8 UV-I 823 W/m 2,5 C 6,8 C 29,0 km/h (5 Bft) 100,00 %
11.04.2017 12:58 12,5 C 50 % 1021,7 hPa 0,0 l/m 19,0 km/h (3 Bft) W 280 2 min 0,000 mm 3,8 UV-I 825 W/m 2,4 C 6,8 C 37,0 km/h (5 Bft) 97,87 %
11.04.2017 13:00 12,6 C 51 % 1021,6 hPa 0,0 l/m 18,9 km/h (3 Bft) W-NW 287 2 min 0,457 mm 3,8 UV-I 862 W/m 2,7 C 7,0 C 33,8 km/h (5 Bft) 95,74 %
11.04.2017 13:02 12,6 C 49 % 1021,6 hPa 0,0 l/m 20,0 km/h (4 Bft) W 281 2 min 0,000 mm 3,9 UV-I 911 W/m 2,2 C 6,6 C 41,8 km/h (6 Bft) 97,87 %
11.04.2017 13:04 12,5 C 49 % 1021,7 hPa 0,0 l/m 23,5 km/h (4 Bft) W 281 2 min 0,000 mm 3,9 UV-I 905 W/m 2,1 C 5,6 C 35,4 km/h (5 Bft) 97,56 %
11.04.2017 13:06 12,4 C 50 % 1021,6 hPa 0,0 l/m 18,4 km/h (3 Bft) W-SW 248 2 min 0,000 mm 3,8 UV-I 863 W/m 2,3 C 6,9 C 29,0 km/h (5 Bft) 100,00 %
11.04.2017 13:08 12,6 C 49 % 1021,6 hPa 0,0 l/m 20,6 km/h (4 Bft) W-NW 286 2 min 0,000 mm 3,7 UV-I 861 W/m 2,2 C 6,5 C 29,0 km/h (5 Bft) 96,43 %
11.04.2017 13:10 12,7 C 51 % 1021,5 hPa 0,0 l/m 11,9 km/h (2 Bft) NW 308 2 min 0,000 mm 3,7 UV-I 857 W/m 2,8 C 9,7 C 27,4 km/h (4 Bft) 92,31 %
11.04.2017 13:12 12,8 C 52 % 1021,6 hPa 0,0 l/m 11,3 km/h (2 Bft) N-NW 347 2 min 0,000 mm 3,5 UV-I 802 W/m 3,2 C 10,1 C 27,4 km/h (4 Bft) 96,00 %
11.04.2017 13:14 12,9 C 50 % 1021,6 hPa 0,0 l/m 12,0 km/h (2 Bft) SW 236 2 min 0,000 mm 3,3 UV-I 745 W/m 2,7 C 9,9 C 20,9 km/h (4 Bft) 97,37 %
11.04.2017 13:16 12,9 C 50 % 1021,6 hPa 0,0 l/m 19,2 km/h (3 Bft) W-SW 245 2 min 0,000 mm 3,4 UV-I 791 W/m 2,7 C 7,3 C 32,2 km/h (5 Bft) 94,64 %
11.04.2017 13:18 12,9 C 49 % 1021,6 hPa 0,0 l/m 24,0 km/h (4 Bft) W 281 2 min 0,000 mm 3,2 UV-I 795 W/m 2,5 C 6,0 C 40,2 km/h (6 Bft) 94,74 %
11.04.2017 13:20 12,9 C 49 % 1021,6 hPa 0,0 l/m 19,3 km/h (3 Bft) W-SW 245 2 min 0,000 mm 2,6 UV-I 570 W/m 2,5 C 7,2 C 33,8 km/h (5 Bft) 94,92 %
11.04.2017 13:22 12,8 C 50 % 1021,6 hPa 0,0 l/m 18,2 km/h (3 Bft) W 267 2 min 0,000 mm 2,2 UV-I 448 W/m 2,6 C 7,4 C 29,0 km/h (5 Bft) 93,18 %
11.04.2017 13:24 12,5 C 48 % 1021,6 hPa 0,0 l/m 14,8 km/h (3 Bft) SW 225 0 min 0,000 mm 2,1 UV-I 384 W/m 1,8 C 8,2 C 25,7 km/h (4 Bft) 94,00 %
11.04.2017 13:26 12,3 C 49 % 1021,6 hPa 0,0 l/m 13,0 km/h (3 Bft) S-SW 208 0 min 0,000 mm 2,1 UV-I 409 W/m 1,9 C 8,7 C 24,1 km/h (4 Bft) 92,11 %
11.04.2017 13:28 12,3 C 52 % 1021,7 hPa 0,0 l/m 14,9 km/h (3 Bft) W-SW 248 0 min 0,000 mm 2,1 UV-I 406 W/m 2,7 C 8,0 C 24,1 km/h (4 Bft) 90,57 %
11.04.2017 13:30 12,1 C 50 % 1021,6 hPa 0,0 l/m 18,6 km/h (3 Bft) W-SW 249 0 min 0,000 mm 1,9 UV-I 375 W/m 2,0 C 6,4 C 27,4 km/h (4 Bft) 88,64 %
11.04.2017 13:32 11,9 C 51 % 1021,6 hPa 0,0 l/m 16,3 km/h (3 Bft) W 275 0 min 0,000 mm 1,9 UV-I 357 W/m 2,1 C 7,0 C 24,1 km/h (4 Bft) 90,57 %
11.04.2017 13:34 11,8 C 51 % 1021,6 hPa 0,0 l/m 16,7 km/h (3 Bft) W 269 0 min 0,000 mm 1,9 UV-I 359 W/m 2,0 C 6,7 C 22,5 km/h (4 Bft) 95,12 %
11.04.2017 13:36 11,8 C 52 % 1021,6 hPa 0,0 l/m 13,6 km/h (3 Bft) W-SW 244 0 min 0,000 mm 2,1 UV-I 388 W/m 2,3 C 7,9 C 24,1 km/h (4 Bft) 95,74 %
11.04.2017 13:38 11,8 C 51 % 1021,6 hPa 0,0 l/m 11,8 km/h (2 Bft) W 267 0 min 0,000 mm 2,0 UV-I 389 W/m 2,0 C 8,7 C 20,9 km/h (4 Bft) 95,12 %
11.04.2017 13:40 11,8 C 53 % 1021,6 hPa 0,0 l/m 10,2 km/h (2 Bft) SW 232 0 min 0,000 mm 2,0 UV-I 374 W/m 2,5 C 9,5 C 20,9 km/h (4 Bft) 90,00 %
11.04.2017 13:42 11,8 C 54 % 1021,5 hPa 0,0 l/m 7,1 km/h (2 Bft) W 279 0 min 0,000 mm 2,0 UV-I 392 W/m 2,8 C 11,3 C 12,9 km/h (3 Bft) 91,49 %
11.04.2017 13:44 11,9 C 53 % 1021,6 hPa 0,0 l/m 13,5 km/h (3 Bft) W 264 0 min 0,000 mm 2,1 UV-I 406 W/m 2,6 C 8,0 C 20,9 km/h (4 Bft) 97,44 %
11.04.2017 13:46 11,9 C 52 % 1021,6 hPa 0,0 l/m 15,7 km/h (3 Bft) W-SW 255 2 min 0,000 mm 2,2 UV-I 483 W/m 2,4 C 7,2 C 25,7 km/h (4 Bft) 94,55 %
11.04.2017 13:48 11,9 C 52 % 1021,6 hPa 0,0 l/m 13,6 km/h (3 Bft) W-SW 246 2 min 0,000 mm 2,2 UV-I 450 W/m 2,4 C 8,0 C 19,3 km/h (3 Bft) 92,86 %
11.04.2017 13:50 11,9 C 52 % 1021,6 hPa 0,0 l/m 10,3 km/h (2 Bft) W-SW 242 2 min 0,000 mm 2,2 UV-I 448 W/m 2,4 C 9,5 C 20,9 km/h (4 Bft) 96,36 %
11.04.2017 13:52 11,9 C 52 % 1021,6 hPa 0,0 l/m 10,3 km/h (2 Bft) W-NW 293 2 min 0,000 mm 2,2 UV-I 458 W/m 2,4 C 9,5 C 17,7 km/h (3 Bft) 95,24 %
11.04.2017 13:54 11,9 C 53 % 1021,6 hPa 0,0 l/m 11,3 km/h (2 Bft) NW 317 2 min 0,000 mm 2,3 UV-I 492 W/m 2,6 C 9,0 C 20,9 km/h (4 Bft) 97,56 %
11.04.2017 13:56 11,9 C 52 % 1021,5 hPa 0,0 l/m 8,8 km/h (2 Bft) W-NW 297 2 min 0,000 mm 2,4 UV-I 540 W/m 2,4 C 10,4 C 14,5 km/h (3 Bft) 94,92 %
11.04.2017 13:58 12,1 C 52 % 1021,5 hPa 0,0 l/m 11,3 km/h (2 Bft) W 278 2 min 0,000 mm 2,4 UV-I 530 W/m 2,5 C 9,3 C 16,1 km/h (3 Bft) 92,68 %
11.04.2017 14:00 12,2 C 52 % 1021,6 hPa 0,0 l/m 11,0 km/h (2 Bft) SW 232 2 min 0,356 mm 2,2 UV-I 485 W/m 2,6 C 9,5 C 19,3 km/h (3 Bft) 96,00 %
11.04.2017 14:02 12,3 C 51 % 1021,4 hPa 0,0 l/m 9,3 km/h (2 Bft) W 261 2 min 0,000 mm 2,0 UV-I 417 W/m 2,5 C 10,5 C 16,1 km/h (3 Bft) 94,34 %
11.04.2017 14:04 12,3 C 51 % 1021,5 hPa 0,0 l/m 11,7 km/h (2 Bft) W-SW 242 2 min 0,000 mm 2,0 UV-I 435 W/m 2,5 C 9,3 C 17,7 km/h (3 Bft) 95,74 %
11.04.2017 14:06 12,2 C 51 % 1021,4 hPa 0,0 l/m 12,6 km/h (3 Bft) W 267 2 min 0,000 mm 2,0 UV-I 438 W/m 2,4 C 8,8 C 22,5 km/h (4 Bft) 95,12 %
11.04.2017 14:08 12,1 C 51 % 1021,4 hPa 0,0 l/m 10,3 km/h (2 Bft) W 260 2 min 0,000 mm 2,1 UV-I 446 W/m 2,3 C 9,8 C 20,9 km/h (4 Bft) 95,12 %
11.04.2017 14:10 12,1 C 51 % 1021,4 hPa 0,0 l/m 12,3 km/h (3 Bft) W-SW 243 2 min 0,000 mm 2,1 UV-I 451 W/m 2,3 C 8,8 C 17,7 km/h (3 Bft) 96,43 %
11.04.2017 14:12 12,1 C 51 % 1021,3 hPa 0,0 l/m 16,6 km/h (3 Bft) W-SW 250 2 min 0,000 mm 2,2 UV-I 472 W/m 2,3 C 7,1 C 30,6 km/h (5 Bft) 97,87 %
11.04.2017 14:14 12,1 C 52 % 1021,4 hPa 0,0 l/m 13,0 km/h (3 Bft) W 267 2 min 0,000 mm 2,2 UV-I 499 W/m 2,5 C 8,5 C 22,5 km/h (4 Bft) 94,29 %
11.04.2017 14:16 12,2 C 50 % 1021,3 hPa 0,0 l/m 10,8 km/h (2 Bft) W-SW 255 2 min 0,000 mm 2,1 UV-I 487 W/m 2,1 C 9,6 C 17,7 km/h (3 Bft) 95,74 %
11.04.2017 14:18 12,2 C 51 % 1021,3 hPa 0,0 l/m 18,4 km/h (3 Bft) W-NW 286 2 min 0,000 mm 2,1 UV-I 458 W/m 2,4 C 6,6 C 29,0 km/h (5 Bft) 96,43 %
11.04.2017 14:20 12,2 C 50 % 1021,2 hPa 0,0 l/m 14,7 km/h (3 Bft) W-SW 246 2 min 0,000 mm 2,0 UV-I 410 W/m 2,1 C 7,9 C 22,5 km/h (4 Bft) 94,74 %
11.04.2017 14:22 12,1 C 51 % 1021,2 hPa 0,0 l/m 18,4 km/h (3 Bft) W 263 2 min 0,000 mm 2,0 UV-I 415 W/m 2,3 C 6,5 C 29,0 km/h (5 Bft) 94,92 %
11.04.2017 14:24 12,1 C 51 % 1021,2 hPa 0,0 l/m 13,1 km/h (3 Bft) W 264 2 min 0,000 mm 2,0 UV-I 417 W/m 2,3 C 8,4 C 25,7 km/h (4 Bft) 97,87 %
11.04.2017 14:26 12,1 C 51 % 1021,3 hPa 0,0 l/m 10,6 km/h (2 Bft) W-NW 285 2 min 0,000 mm 2,1 UV-I 413 W/m 2,3 C 9,6 C 19,3 km/h (3 Bft) 95,74 %
11.04.2017 14:28 12,1 C 52 % 1021,3 hPa 0,0 l/m 11,8 km/h (2 Bft) W-NW 292 2 min 0,000 mm 2,2 UV-I 468 W/m 2,5 C 9,0 C 17,7 km/h (3 Bft) 95,45 %
11.04.2017 14:30 12,2 C 50 % 1021,2 hPa 0,0 l/m 14,1 km/h (3 Bft) W 265 2 min 0,000 mm 2,2 UV-I 493 W/m 2,1 C 8,2 C 27,4 km/h (4 Bft) 97,62 %
11.04.2017 14:32 12,1 C 50 % 1021,3 hPa 0,0 l/m 17,5 km/h (3 Bft) W 262 2 min 0,000 mm 2,1 UV-I 449 W/m 2,0 C 6,8 C 29,0 km/h (5 Bft) 100,00 %
11.04.2017 14:34 12,1 C 51 % 1021,3 hPa 0,0 l/m 13,8 km/h (3 Bft) W-NW 293 2 min 0,000 mm 2,0 UV-I 424 W/m 2,3 C 8,2 C 20,9 km/h (4 Bft) 93,18 %
11.04.2017 14:36 12,1 C 52 % 1021,3 hPa 0,0 l/m 14,5 km/h (3 Bft) W-SW 258 2 min 0,000 mm 2,0 UV-I 412 W/m 2,5 C 7,9 C 20,9 km/h (4 Bft) 94,34 %
11.04.2017 14:38 12,1 C 50 % 1021,3 hPa 0,0 l/m 16,5 km/h (3 Bft) W 272 2 min 0,000 mm 1,9 UV-I 396 W/m 2,0 C 7,1 C 24,1 km/h (4 Bft) 100,00 %
11.04.2017 14:40 12,1 C 50 % 1021,3 hPa 0,0 l/m 15,1 km/h (3 Bft) W 266 0 min 0,000 mm 1,7 UV-I 360 W/m 2,0 C 7,6 C 24,1 km/h (4 Bft) 98,00 %
11.04.2017 14:42 12,1 C 52 % 1021,3 hPa 0,0 l/m 14,6 km/h (3 Bft) W 273 0 min 0,000 mm 1,7 UV-I 341 W/m 2,5 C 7,8 C 25,7 km/h (4 Bft) 97,37 %
11.04.2017 14:44 12,0 C 51 % 1021,3 hPa 0,0 l/m 16,5 km/h (3 Bft) W-SW 240 0 min 0,000 mm 1,7 UV-I 348 W/m 2,2 C 7,0 C 27,4 km/h (4 Bft) 96,00 %
11.04.2017 14:46 11,9 C 51 % 1021,3 hPa 0,0 l/m 17,2 km/h (3 Bft) W-SW 255 0 min 0,000 mm 1,7 UV-I 352 W/m 2,1 C 6,6 C 22,5 km/h (4 Bft) 100,00 %
11.04.2017 14:48 12,0 C 51 % 1021,3 hPa 0,0 l/m 15,1 km/h (3 Bft) S-SW 200 0 min 0,000 mm 1,7 UV-I 341 W/m 2,2 C 7,5 C 22,5 km/h (4 Bft) 94,34 %
11.04.2017 14:50 11,9 C 50 % 1021,2 hPa 0,0 l/m 13,3 km/h (3 Bft) W-SW 249 0 min 0,000 mm 1,7 UV-I 334 W/m 1,8 C 8,1 C 20,9 km/h (4 Bft) 98,00 %
11.04.2017 14:52 11,9 C 51 % 1021,2 hPa 0,0 l/m 10,7 km/h (2 Bft) W 263 0 min 0,000 mm 1,9 UV-I 363 W/m 2,1 C 9,3 C 24,1 km/h (4 Bft) 100,00 %
11.04.2017 14:54 11,9 C 52 % 1021,2 hPa 0,0 l/m 17,7 km/h (3 Bft) W-SW 253 2 min 0,000 mm 1,9 UV-I 395 W/m 2,4 C 6,5 C 30,6 km/h (5 Bft) 100,00 %
11.04.2017 14:56 12,0 C 51 % 1021,2 hPa 0,0 l/m 20,3 km/h (4 Bft) W-SW 256 2 min 0,000 mm 1,9 UV-I 410 W/m 2,2 C 5,8 C 30,6 km/h (5 Bft) 96,23 %
11.04.2017 14:58 12,1 C 51 % 1021,2 hPa 0,0 l/m 14,8 km/h (3 Bft) W-SW 248 2 min 0,000 mm 2,2 UV-I 542 W/m 2,3 C 7,8 C 27,4 km/h (4 Bft) 100,00 %
11.04.2017 15:00 12,2 C 51 % 1021,2 hPa 0,0 l/m 11,9 km/h (2 Bft) W 271 2 min 0,000 mm 2,4 UV-I 604 W/m 2,4 C 9,1 C 17,7 km/h (3 Bft) 98,11 %
11.04.2017 15:02 12,3 C 51 % 1021,1 hPa 0,0 l/m 15,6 km/h (3 Bft) W-SW 252 2 min 0,279 mm 2,3 UV-I 608 W/m 2,5 C 7,7 C 22,5 km/h (4 Bft) 100,00 %
11.04.2017 15:04 12,4 C 51 % 1021,1 hPa 0,0 l/m 16,3 km/h (3 Bft) SW 229 2 min 0,000 mm 2,1 UV-I 448 W/m 2,6 C 7,6 C 25,7 km/h (4 Bft) 100,00 %
11.04.2017 15:06 12,4 C 50 % 1021,1 hPa 0,0 l/m 21,5 km/h (4 Bft) W 263 2 min 0,000 mm 2,0 UV-I 410 W/m 2,3 C 6,0 C 29,0 km/h (5 Bft) 94,44 %
11.04.2017 15:08 12,3 C 51 % 1021,1 hPa 0,0 l/m 15,7 km/h (3 Bft) SW 235 2 min 0,000 mm 2,0 UV-I 430 W/m 2,5 C 7,7 C 24,1 km/h (4 Bft) 96,00 %
11.04.2017 15:10 12,4 C 52 % 1021,2 hPa 0,0 l/m 13,3 km/h (3 Bft) W-SW 254 2 min 0,000 mm 2,0 UV-I 428 W/m 2,8 C 8,7 C 19,3 km/h (3 Bft) 95,45 %
11.04.2017 15:12 12,5 C 51 % 1021,1 hPa 0,0 l/m 12,1 km/h (2 Bft) W-NW 282 2 min 0,000 mm 2,0 UV-I 452 W/m 2,6 C 9,3 C 20,9 km/h (4 Bft) 98,11 %
11.04.2017 15:14 12,6 C 51 % 1021,2 hPa 0,0 l/m 14,7 km/h (3 Bft) W 271 2 min 0,000 mm 1,9 UV-I 430 W/m 2,7 C 8,4 C 25,7 km/h (4 Bft) 90,57 %
11.04.2017 15:16 12,5 C 51 % 1021,2 hPa 0,0 l/m 15,1 km/h (3 Bft) W-SW 243 0 min 0,000 mm 1,7 UV-I 339 W/m 2,6 C 8,1 C 25,7 km/h (4 Bft) 100,00 %
11.04.2017 15:18 12,4 C 50 % 1021,2 hPa 0,0 l/m 16,0 km/h (3 Bft) W 260 0 min 0,000 mm 1,7 UV-I 354 W/m 2,3 C 7,7 C 27,4 km/h (4 Bft) 94,34 %
11.04.2017 15:20 12,4 C 51 % 1021,2 hPa 0,0 l/m 21,3 km/h (4 Bft) W-SW 257 2 min 0,000 mm 1,9 UV-I 434 W/m 2,6 C 6,0 C 33,8 km/h (5 Bft) 98,11 %
11.04.2017 15:22 12,4 C 50 % 1021,1 hPa 0,0 l/m 17,9 km/h (3 Bft) W 278 2 min 0,000 mm 2,2 UV-I 535 W/m 2,3 C 7,0 C 30,6 km/h (5 Bft) 98,11 %
11.04.2017 15:24 12,6 C 50 % 1021,1 hPa 0,0 l/m 16,0 km/h (3 Bft) W-SW 242 2 min 0,000 mm 2,0 UV-I 620 W/m 2,5 C 7,9 C 24,1 km/h (4 Bft) 97,87 %
11.04.2017 15:26 12,8 C 51 % 1021,1 hPa 0,0 l/m 15,3 km/h (3 Bft) W-NW 301 2 min 0,000 mm 2,2 UV-I 401 W/m 2,9 C 8,4 C 24,1 km/h (4 Bft) 94,29 %
11.04.2017 15:28 12,9 C 48 % 1021,0 hPa 0,0 l/m 14,3 km/h (3 Bft) W 268 2 min 0,000 mm 2,4 UV-I 540 W/m 2,2 C 8,9 C 24,1 km/h (4 Bft) 96,43 %
11.04.2017 15:30 13,0 C 49 % 1021,0 hPa 0,0 l/m 11,6 km/h (2 Bft) W-SW 254 2 min 0,000 mm 2,1 UV-I 665 W/m 2,5 C 10,1 C 20,9 km/h (4 Bft) 97,56 %
11.04.2017 15:32 13,0 C 50 % 1021,0 hPa 0,0 l/m 18,9 km/h (3 Bft) W 269 2 min 0,000 mm 2,1 UV-I 489 W/m 2,8 C 7,5 C 33,8 km/h (5 Bft) 93,18 %
11.04.2017 15:34 12,9 C 48 % 1021,0 hPa 0,0 l/m 15,9 km/h (3 Bft) W 260 2 min 0,000 mm 1,9 UV-I 489 W/m 2,2 C 8,3 C 22,5 km/h (4 Bft) 100,00 %
11.04.2017 15:36 12,9 C 47 % 1021,0 hPa 0,0 l/m 18,5 km/h (3 Bft) W-SW 242 2 min 0,000 mm 2,3 UV-I 656 W/m 1,9 C 7,5 C 30,6 km/h (5 Bft) 94,74 %
11.04.2017 15:38 13,1 C 49 % 1021,0 hPa 0,0 l/m 19,1 km/h (3 Bft) W 261 2 min 0,000 mm 2,1 UV-I 740 W/m 2,6 C 7,6 C 30,6 km/h (5 Bft) 98,00 %
11.04.2017 15:40 13,1 C 50 % 1020,9 hPa 0,0 l/m 17,9 km/h (3 Bft) W-SW 246 2 min 0,000 mm 1,6 UV-I 473 W/m 2,9 C 7,9 C 30,6 km/h (5 Bft) 98,00 %
11.04.2017 15:42 13,1 C 50 % 1020,9 hPa 0,0 l/m 12,3 km/h (3 Bft) W-SW 254 2 min 0,000 mm 1,7 UV-I 414 W/m 2,9 C 10,0 C 19,3 km/h (3 Bft) 100,00 %
11.04.2017 15:44 13,1 C 48 % 1020,9 hPa 0,0 l/m 20,4 km/h (4 Bft) W-SW 248 2 min 0,000 mm 1,7 UV-I 410 W/m 2,3 C 7,2 C 32,2 km/h (5 Bft) 96,15 %
11.04.2017 15:46 12,9 C 50 % 1021,0 hPa 0,0 l/m 17,8 km/h (3 Bft) SW 223 2 min 0,000 mm 1,8 UV-I 466 W/m 2,7 C 7,7 C 24,1 km/h (4 Bft) 100,00 %
11.04.2017 15:48 12,9 C 50 % 1020,9 hPa 0,0 l/m 14,2 km/h (3 Bft) W-SW 242 2 min 0,000 mm 1,8 UV-I 507 W/m 2,7 C 8,9 C 24,1 km/h (4 Bft) 97,44 %
11.04.2017 15:50 13,0 C 50 % 1020,9 hPa 0,0 l/m 15,5 km/h (3 Bft) W-SW 250 2 min 0,000 mm 1,9 UV-I 606 W/m 2,8 C 8,6 C 25,7 km/h (4 Bft) 98,18 %
11.04.2017 15:52 13,1 C 50 % 1020,8 hPa 0,0 l/m 14,7 km/h (3 Bft) W 265 2 min 0,000 mm 1,6 UV-I 425 W/m 2,9 C 9,0 C 25,7 km/h (4 Bft) 97,22 %
11.04.2017 15:54 13,1 C 49 % 1020,8 hPa 0,0 l/m 9,5 km/h (2 Bft) W 281 2 min 0,000 mm 1,7 UV-I 426 W/m 2,6 C 11,3 C 20,9 km/h (4 Bft) 100,00 %
11.04.2017 15:56 13,1 C 51 % 1020,9 hPa 0,0 l/m 8,3 km/h (2 Bft) W-SW 241 2 min 0,000 mm 1,8 UV-I 621 W/m 3,2 C 11,9 C 20,9 km/h (4 Bft) 97,73 %
11.04.2017 15:58 13,2 C 52 % 1020,8 hPa 0,0 l/m 3,5 km/h (1 Bft) W-SW 242 2 min 0,000 mm 1,7 UV-I 619 W/m 3,6 C 13,2 C 9,7 km/h (2 Bft) 100,00 %
11.04.2017 16:00 13,2 C 50 % 1020,8 hPa 0,0 l/m 13,1 km/h (3 Bft) W-SW 241 2 min 0,330 mm 1,3 UV-I 387 W/m 3,0 C 9,7 C 20,9 km/h (4 Bft) 97,56 %
11.04.2017 16:02 13,1 C 50 % 1020,8 hPa 0,0 l/m 16,9 km/h (3 Bft) SW 235 0 min 0,000 mm 1,5 UV-I 189 W/m 2,9 C 8,2 C 25,7 km/h (4 Bft) 100,00 %
11.04.2017 16:04 12,9 C 49 % 1020,8 hPa 0,0 l/m 12,7 km/h (3 Bft) W-NW 290 0 min 0,000 mm 1,5 UV-I 250 W/m 2,5 C 9,6 C 20,9 km/h (4 Bft) 97,73 %
11.04.2017 16:06 12,9 C 52 % 1020,8 hPa 0,0 l/m 5,9 km/h (2 Bft) NW 315 2 min 0,000 mm 1,7 UV-I 414 W/m 3,3 C 12,9 C 12,9 km/h (3 Bft) 100,00 %
11.04.2017 16:08 13,2 C 53 % 1020,8 hPa 0,0 l/m 4,8 km/h (1 Bft) SW 232 2 min 0,000 mm 1,6 UV-I 527 W/m 3,8 C 13,2 C 11,3 km/h (2 Bft) 97,73 %
11.04.2017 16:10 13,4 C 51 % 1020,7 hPa 0,0 l/m 11,5 km/h (2 Bft) W-SW 239 2 min 0,000 mm 1,5 UV-I 527 W/m 3,5 C 10,6 C 17,7 km/h (3 Bft) 98,00 %
11.04.2017 16:12 13,5 C 49 % 1020,8 hPa 0,0 l/m 13,6 km/h (3 Bft) SW 227 2 min 0,000 mm 1,5 UV-I 530 W/m 3,0 C 9,9 C 19,3 km/h (3 Bft) 100,00 %
11.04.2017 16:14 13,5 C 48 % 1020,7 hPa 0,0 l/m 10,1 km/h (2 Bft) W 267 2 min 0,000 mm 1,6 UV-I 649 W/m 2,7 C 11,4 C 25,7 km/h (4 Bft) 97,73 %
11.04.2017 16:16 13,4 C 50 % 1020,7 hPa 0,0 l/m 6,3 km/h (2 Bft) W-NW 296 2 min 0,000 mm 1,2 UV-I 451 W/m 3,2 C 13,4 C 24,1 km/h (4 Bft) 100,00 %
11.04.2017 16:18 13,2 C 49 % 1020,8 hPa 0,0 l/m 8,4 km/h (2 Bft) SW 224 0 min 0,000 mm 1,2 UV-I 174 W/m 2,7 C 12,0 C 14,5 km/h (3 Bft) 97,56 %
11.04.2017 16:20 13,1 C 50 % 1020,8 hPa 0,0 l/m 12,6 km/h (3 Bft) W-SW 243 2 min 0,000 mm 1,6 UV-I 466 W/m 2,9 C 9,8 C 19,3 km/h (3 Bft) 98,00 %
11.04.2017 16:22 13,2 C 51 % 1020,8 hPa 0,0 l/m 12,0 km/h (2 Bft) W 266 2 min 0,000 mm 1,5 UV-I 541 W/m 3,3 C 10,2 C 17,7 km/h (3 Bft) 98,00 %
11.04.2017 16:24 13,3 C 50 % 1020,9 hPa 0,0 l/m 19,4 km/h (3 Bft) W 263 2 min 0,000 mm 1,4 UV-I 486 W/m 3,1 C 7,7 C 30,6 km/h (5 Bft) 96,23 %
11.04.2017 16:26 13,3 C 48 % 1020,9 hPa 0,0 l/m 13,7 km/h (3 Bft) W-SW 251 2 min 0,000 mm 1,2 UV-I 460 W/m 2,5 C 9,6 C 20,9 km/h (4 Bft) 97,56 %
11.04.2017 16:28 13,1 C 50 % 1020,9 hPa 0,0 l/m 11,9 km/h (2 Bft) W-SW 258 0 min 0,000 mm 1,1 UV-I 132 W/m 2,9 C 10,1 C 16,1 km/h (3 Bft) 97,62 %
11.04.2017 16:30 12,8 C 50 % 1020,9 hPa 0,0 l/m 12,8 km/h (3 Bft) W 263 0 min 0,000 mm 1,1 UV-I 208 W/m 2,6 C 9,4 C 19,3 km/h (3 Bft) 96,23 %
11.04.2017 16:32 12,8 C 50 % 1020,8 hPa 0,0 l/m 13,9 km/h (3 Bft) W 269 2 min 0,000 mm 1,3 UV-I 489 W/m 2,6 C 8,9 C 24,1 km/h (4 Bft) 97,56 %
11.04.2017 16:34 12,8 C 51 % 1020,9 hPa 0,0 l/m 12,2 km/h (2 Bft) W-SW 251 2 min 0,000 mm 1,3 UV-I 540 W/m 2,9 C 9,7 C 19,3 km/h (3 Bft) 100,00 %
11.04.2017 16:36 12,9 C 50 % 1020,7 hPa 0,0 l/m 10,5 km/h (2 Bft) W-SW 252 2 min 0,000 mm 1,0 UV-I 341 W/m 2,7 C 10,5 C 16,1 km/h (3 Bft) 97,37 %
11.04.2017 16:38 12,8 C 51 % 1020,8 hPa 0,0 l/m 11,5 km/h (2 Bft) W 273 0 min 0,000 mm 1,0 UV-I 156 W/m 2,9 C 10,0 C 20,9 km/h (4 Bft) 98,00 %
11.04.2017 16:40 12,8 C 50 % 1020,7 hPa 0,0 l/m 12,7 km/h (3 Bft) W-SW 248 2 min 0,000 mm 1,2 UV-I 487 W/m 2,6 C 9,4 C 19,3 km/h (3 Bft) 96,00 %
11.04.2017 16:42 13,0 C 50 % 1020,7 hPa 0,0 l/m 17,6 km/h (3 Bft) W 271 2 min 0,000 mm 1,2 UV-I 549 W/m 2,8 C 7,9 C 22,5 km/h (4 Bft) 97,37 %
11.04.2017 16:44 13,1 C 48 % 1020,7 hPa 0,0 l/m 17,3 km/h (3 Bft) W 262 2 min 0,000 mm 1,0 UV-I 313 W/m 2,3 C 8,1 C 25,7 km/h (4 Bft) 100,00 %
11.04.2017 16:46 13,2 C 48 % 1020,7 hPa 0,0 l/m 20,3 km/h (4 Bft) W-SW 257 2 min 0,000 mm 1,1 UV-I 519 W/m 2,4 C 7,3 C 27,4 km/h (4 Bft) 96,77 %
11.04.2017 16:48 13,3 C 48 % 1020,7 hPa 0,0 l/m 18,9 km/h (3 Bft) SW 216 2 min 0,000 mm 1,0 UV-I 540 W/m 2,5 C 7,9 C 29,0 km/h (5 Bft) 97,14 %
11.04.2017 16:50 13,3 C 49 % 1020,7 hPa 0,0 l/m 15,0 km/h (3 Bft) W-SW 248 2 min 0,000 mm 1,0 UV-I 285 W/m 2,8 C 9,1 C 22,5 km/h (4 Bft) 98,18 %
11.04.2017 16:52 13,3 C 47 % 1020,9 hPa 0,0 l/m 21,2 km/h (4 Bft) W-SW 248 2 min 0,000 mm 1,0 UV-I 484 W/m 2,2 C 7,2 C 29,0 km/h (5 Bft) 92,11 %
11.04.2017 16:54 13,2 C 48 % 1020,7 hPa 0,0 l/m 15,7 km/h (3 Bft) W 263 2 min 0,000 mm 1,0 UV-I 481 W/m 2,4 C 8,8 C 30,6 km/h (5 Bft) 96,23 %
11.04.2017 16:56 13,3 C 48 % 1020,7 hPa 0,0 l/m 13,6 km/h (3 Bft) W-SW 241 2 min 0,000 mm 1,0 UV-I 486 W/m 2,5 C 9,7 C 20,9 km/h (4 Bft) 88,68 %
11.04.2017 16:58 13,3 C 48 % 1020,8 hPa 0,0 l/m 16,2 km/h (3 Bft) W-SW 252 2 min 0,000 mm 1,0 UV-I 486 W/m 2,5 C 8,7 C 24,1 km/h (4 Bft) 97,37 %
11.04.2017 17:00 13,4 C 49 % 1020,7 hPa 0,0 l/m 16,1 km/h (3 Bft) W-SW 255 2 min 0,280 mm 1,0 UV-I 480 W/m 2,9 C 8,9 C 20,9 km/h (4 Bft) 97,87 %
11.04.2017 17:02 13,4 C 49 % 1020,7 hPa 0,0 l/m 10,0 km/h (2 Bft) W 272 2 min 0,000 mm 0,9 UV-I 432 W/m 2,9 C 11,4 C 20,9 km/h (4 Bft) 92,16 %
11.04.2017 17:04 13,5 C 50 % 1020,7 hPa 0,0 l/m 4,1 km/h (1 Bft) NW 305 2 min 0,000 mm 0,9 UV-I 418 W/m 3,3 C 13,5 C 8,0 km/h (2 Bft) 92,31 %
11.04.2017 17:06 13,6 C 50 % 1020,7 hPa 0,0 l/m 6,0 km/h (2 Bft) W 259 2 min 0,000 mm 0,9 UV-I 383 W/m 3,4 C 13,6 C 11,3 km/h (2 Bft) 96,23 %
11.04.2017 17:08 13,5 C 50 % 1020,7 hPa 0,0 l/m 10,2 km/h (2 Bft) W 277 2 min 0,000 mm 0,9 UV-I 398 W/m 3,3 C 11,4 C 20,9 km/h (4 Bft) 98,08 %
11.04.2017 17:10 13,4 C 49 % 1020,7 hPa 0,0 l/m 8,3 km/h (2 Bft) W 262 2 min 0,000 mm 0,8 UV-I 370 W/m 2,9 C 12,2 C 14,5 km/h (3 Bft) 92,86 %
11.04.2017 17:12 13,3 C 49 % 1020,8 hPa 0,0 l/m 12,3 km/h (3 Bft) W-SW 249 2 min 0,000 mm 0,8 UV-I 383 W/m 2,8 C 10,2 C 22,5 km/h (4 Bft) 92,68 %
11.04.2017 17:14 13,3 C 49 % 1020,8 hPa 0,0 l/m 14,8 km/h (3 Bft) W 267 2 min 0,000 mm 0,8 UV-I 380 W/m 2,8 C 9,2 C 20,9 km/h (4 Bft) 93,18 %
11.04.2017 17:16 13,3 C 48 % 1020,8 hPa 0,0 l/m 13,7 km/h (3 Bft) W 259 2 min 0,000 mm 0,8 UV-I 392 W/m 2,5 C 9,6 C 17,7 km/h (3 Bft) 95,45 %
11.04.2017 17:18 13,3 C 49 % 1020,8 hPa 0,0 l/m 10,1 km/h (2 Bft) SW 216 2 min 0,000 mm 0,7 UV-I 261 W/m 2,8 C 11,2 C 14,5 km/h (3 Bft) 92,45 %
11.04.2017 17:20 13,3 C 49 % 1020,8 hPa 0,0 l/m 18,0 km/h (3 Bft) SW 236 2 min 0,000 mm 0,7 UV-I 362 W/m 2,8 C 8,1 C 27,4 km/h (4 Bft) 94,00 %
11.04.2017 17:22 13,2 C 49 % 1020,8 hPa 0,0 l/m 11,6 km/h (2 Bft) W-SW 246 2 min 0,000 mm 0,6 UV-I 285 W/m 2,7 C 10,4 C 17,7 km/h (3 Bft) 97,56 %
11.04.2017 17:24 13,1 C 51 % 1020,9 hPa 0,0 l/m 10,9 km/h (2 Bft) W 278 0 min 0,000 mm 0,6 UV-I 179 W/m 3,2 C 10,6 C 20,9 km/h (4 Bft) 98,21 %
11.04.2017 17:26 13,1 C 49 % 1020,8 hPa 0,0 l/m 14,5 km/h (3 Bft) W-SW 257 2 min 0,000 mm 0,6 UV-I 356 W/m 2,6 C 9,1 C 19,3 km/h (3 Bft) 94,74 %
11.04.2017 17:28 13,2 C 48 % 1020,8 hPa 0,0 l/m 19,9 km/h (4 Bft) W-SW 255 2 min 0,000 mm 0,6 UV-I 415 W/m 2,4 C 7,4 C 29,0 km/h (5 Bft) 94,92 %
11.04.2017 17:30 13,2 C 48 % 1020,7 hPa 0,0 l/m 16,2 km/h (3 Bft) NW 304 2 min 0,000 mm 0,6 UV-I 382 W/m 2,4 C 8,6 C 30,6 km/h (5 Bft) 94,74 %
11.04.2017 17:32 13,3 C 48 % 1020,8 hPa 0,0 l/m 12,4 km/h (3 Bft) W-NW 296 2 min 0,000 mm 0,5 UV-I 212 W/m 2,5 C 10,1 C 20,9 km/h (4 Bft) 98,00 %
11.04.2017 17:34 13,2 C 47 % 1020,9 hPa 0,0 l/m 12,5 km/h (3 Bft) SW 215 0 min 0,000 mm 0,5 UV-I 154 W/m 2,1 C 10,0 C 20,9 km/h (4 Bft) 96,23 %
11.04.2017 17:36 13,1 C 49 % 1020,8 hPa 0,0 l/m 7,6 km/h (2 Bft) W-SW 255 0 min 0,000 mm 0,4 UV-I 128 W/m 2,6 C 12,3 C 17,7 km/h (3 Bft) 90,24 %
11.04.2017 17:38 12,8 C 50 % 1020,9 hPa 0,0 l/m 3,8 km/h (1 Bft) N-NW 344 0 min 0,000 mm 0,0 UV-I 122 W/m 2,6 C 12,8 C 9,7 km/h (2 Bft) 100,00 %
11.04.2017 17:40 12,6 C 53 % 1020,9 hPa 0,0 l/m 11,8 km/h (2 Bft) W 281 0 min 0,000 mm 0,0 UV-I 137 W/m 3,3 C 9,6 C 17,7 km/h (3 Bft) 97,73 %
11.04.2017 17:42 12,5 C 52 % 1020,9 hPa 0,0 l/m 5,1 km/h (1 Bft) W-NW 295 2 min 0,000 mm 0,0 UV-I 192 W/m 2,9 C 12,5 C 9,7 km/h (2 Bft) 100,00 %
11.04.2017 17:44 12,4 C 52 % 1020,9 hPa 0,0 l/m 5,7 km/h (1 Bft) W-NW 300 0 min 0,000 mm 0,0 UV-I 167 W/m 2,8 C 12,4 C 12,9 km/h (3 Bft) 95,56 %
11.04.2017 17:46 12,4 C 54 % 1021,0 hPa 0,0 l/m 6,7 km/h (2 Bft) W 273 2 min 0,000 mm 0,0 UV-I 206 W/m 3,4 C 12,2 C 12,9 km/h (3 Bft) 100,00 %
11.04.2017 17:48 12,5 C 52 % 1021,0 hPa 0,0 l/m 7,0 km/h (2 Bft) W 273 0 min 0,000 mm 0,0 UV-I 172 W/m 2,9 C 12,1 C 14,5 km/h (3 Bft) 100,00 %
11.04.2017 17:50 12,6 C 52 % 1021,1 hPa 0,0 l/m 7,8 km/h (2 Bft) W-SW 254 2 min 0,000 mm 0,0 UV-I 216 W/m 3,0 C 11,7 C 17,7 km/h (3 Bft) 100,00 %
11.04.2017 17:53 12,8 C 51 % 1021,0 hPa 0,0 l/m 9,8 km/h (2 Bft) W 275 3 min 0,000 mm 0,0 UV-I 188 W/m 2,9 C 10,8 C 16,1 km/h (3 Bft) 94,74 %
11.04.2017 17:54 12,8 C 50 % 1021,0 hPa 0,0 l/m 13,7 km/h (3 Bft) SW 233 1 min 0,000 mm 0,0 UV-I 208 W/m 2,6 C 9,0 C 19,3 km/h (3 Bft) 100,00 %
11.04.2017 17:56 12,9 C 51 % 1021,1 hPa 0,0 l/m 5,8 km/h (2 Bft) W-NW 286 2 min 0,000 mm 0,0 UV-I 234 W/m 3,0 C 12,9 C 16,1 km/h (3 Bft) 97,37 %
11.04.2017 17:58 13,0 C 49 % 1021,0 hPa 0,0 l/m 5,1 km/h (1 Bft) NW 318 2 min 0,000 mm 0,0 UV-I 211 W/m 2,5 C 13,0 C 12,9 km/h (3 Bft) 98,11 %
11.04.2017 18:00 12,9 C 51 % 1021,0 hPa 0,0 l/m 4,7 km/h (1 Bft) SW 221 2 min 0,000 mm 0,0 UV-I 239 W/m 3,0 C 12,9 C 14,5 km/h (3 Bft) 96,00 %
11.04.2017 18:02 12,9 C 49 % 1021,0 hPa 0,0 l/m 13,0 km/h (3 Bft) W-SW 248 2 min 0,203 mm 0,0 UV-I 182 W/m 2,5 C 9,4 C 27,4 km/h (4 Bft) 97,73 %
11.04.2017 18:04 12,8 C 49 % 1021,0 hPa 0,0 l/m 8,3 km/h (2 Bft) W-SW 246 2 min 0,000 mm 0,0 UV-I 195 W/m 2,4 C 11,6 C 17,7 km/h (3 Bft) 97,87 %
11.04.2017 18:06 12,8 C 48 % 1021,0 hPa 0,0 l/m 12,6 km/h (3 Bft) W-SW 255 2 min 0,000 mm 0,0 UV-I 234 W/m 2,1 C 9,5 C 16,1 km/h (3 Bft) 94,74 %
11.04.2017 18:08 12,9 C 49 % 1021,0 hPa 0,0 l/m 7,7 km/h (2 Bft) NW 316 2 min 0,000 mm 0,0 UV-I 238 W/m 2,5 C 12,1 C 17,7 km/h (3 Bft) 94,64 %
11.04.2017 18:10 12,9 C 52 % 1021,0 hPa 0,0 l/m 7,8 km/h (2 Bft) W 266 2 min 0,000 mm 0,0 UV-I 230 W/m 3,3 C 12,0 C 12,9 km/h (3 Bft) 100,00 %
11.04.2017 18:12 12,8 C 50 % 1021,0 hPa 0,0 l/m 5,9 km/h (2 Bft) W 271 2 min 0,000 mm 0,0 UV-I 220 W/m 2,6 C 12,8 C 12,9 km/h (3 Bft) 98,00 %
11.04.2017 18:14 12,8 C 50 % 1021,1 hPa 0,0 l/m 6,7 km/h (2 Bft) W-NW 292 2 min 0,000 mm 0,0 UV-I 215 W/m 2,6 C 12,6 C 16,1 km/h (3 Bft) 95,12 %
11.04.2017 18:16 12,7 C 52 % 1021,1 hPa 0,0 l/m 6,6 km/h (2 Bft) W 263 2 min 0,000 mm 0,0 UV-I 208 W/m 3,1 C 12,6 C 14,5 km/h (3 Bft) 97,73 %
11.04.2017 18:18 12,7 C 50 % 1021,1 hPa 0,0 l/m 4,6 km/h (1 Bft) W 280 2 min 0,000 mm 0,0 UV-I 169 W/m 2,6 C 12,7 C 16,1 km/h (3 Bft) 94,34 %
11.04.2017 18:20 12,7 C 51 % 1021,1 hPa 0,0 l/m 3,2 km/h (1 Bft) W-SW 252 2 min 0,000 mm 0,0 UV-I 202 W/m 2,8 C 12,7 C 6,4 km/h (2 Bft) 97,87 %
11.04.2017 18:22 12,7 C 51 % 1021,1 hPa 0,0 l/m 5,5 km/h (1 Bft) W 269 2 min 0,000 mm 0,0 UV-I 198 W/m 2,8 C 12,7 C 16,1 km/h (3 Bft) 100,00 %
11.04.2017 18:24 12,8 C 50 % 1021,1 hPa 0,0 l/m 9,5 km/h (2 Bft) W-NW 294 2 min 0,000 mm 0,0 UV-I 175 W/m 2,6 C 10,9 C 17,7 km/h (3 Bft) 98,18 %
11.04.2017 18:26 12,8 C 49 % 1021,1 hPa 0,0 l/m 9,2 km/h (2 Bft) W-NW 282 2 min 0,000 mm 0,0 UV-I 180 W/m 2,4 C 11,1 C 16,1 km/h (3 Bft) 97,44 %
11.04.2017 18:28 12,7 C 50 % 1021,1 hPa 0,0 l/m 8,6 km/h (2 Bft) W-SW 252 2 min 0,000 mm 0,0 UV-I 164 W/m 2,6 C 11,3 C 16,1 km/h (3 Bft) 94,92 %
11.04.2017 18:30 12,7 C 48 % 1021,1 hPa 0,0 l/m 8,5 km/h (2 Bft) W 275 2 min 0,000 mm 0,0 UV-I 129 W/m 2,0 C 11,4 C 16,1 km/h (3 Bft) 94,74 %
11.04.2017 18:32 12,6 C 49 % 1021,2 hPa 0,0 l/m 8,5 km/h (2 Bft) W-SW 252 2 min 0,000 mm 0,0 UV-I 164 W/m 2,2 C 11,3 C 24,1 km/h (4 Bft) 97,87 %
11.04.2017 18:34 12,6 C 48 % 1021,1 hPa 0,0 l/m 9,5 km/h (2 Bft) W-NW 291 2 min 0,000 mm 0,0 UV-I 148 W/m 1,9 C 10,7 C 16,1 km/h (3 Bft) 96,23 %
11.04.2017 18:36 12,5 C 48 % 1021,2 hPa 0,0 l/m 8,7 km/h (2 Bft) NW 322 2 min 0,000 mm 0,0 UV-I 158 W/m 1,8 C 11,1 C 14,5 km/h (3 Bft) 92,00 %
11.04.2017 18:38 12,5 C 48 % 1021,1 hPa 0,0 l/m 6,4 km/h (2 Bft) W 267 2 min 0,000 mm 0,0 UV-I 167 W/m 1,8 C 12,5 C 12,9 km/h (3 Bft) 97,56 %
11.04.2017 18:40 12,5 C 49 % 1021,1 hPa 0,0 l/m 4,6 km/h (1 Bft) W-SW 248 2 min 0,000 mm 0,0 UV-I 167 W/m 2,1 C 12,5 C 6,4 km/h (2 Bft) 92,68 %
11.04.2017 18:42 12,6 C 50 % 1021,1 hPa 0,0 l/m 6,2 km/h (2 Bft) W-NW 291 2 min 0,000 mm 0,0 UV-I 149 W/m 2,5 C 12,6 C 11,3 km/h (2 Bft) 92,45 %
11.04.2017 18:44 12,5 C 50 % 1021,1 hPa 0,0 l/m 6,0 km/h (2 Bft) W-NW 290 2 min 0,000 mm 0,0 UV-I 117 W/m 2,4 C 12,5 C 16,1 km/h (3 Bft) 95,12 %
11.04.2017 18:46 12,4 C 49 % 1021,1 hPa 0,0 l/m 9,1 km/h (2 Bft) W-NW 298 2 min 0,000 mm 0,0 UV-I 149 W/m 2,0 C 10,7 C 20,9 km/h (4 Bft) 92,86 %
11.04.2017 18:48 12,4 C 50 % 1021,1 hPa 0,0 l/m 6,5 km/h (2 Bft) W-SW 239 2 min 0,000 mm 0,0 UV-I 148 W/m 2,3 C 12,4 C 14,5 km/h (3 Bft) 94,29 %
11.04.2017 18:50 12,3 C 49 % 1021,1 hPa 0,0 l/m 8,5 km/h (2 Bft) W-SW 258 2 min 0,000 mm 0,0 UV-I 136 W/m 1,9 C 11,0 C 14,5 km/h (3 Bft) 94,34 %
11.04.2017 18:52 12,3 C 50 % 1021,1 hPa 0,0 l/m 9,0 km/h (2 Bft) W 266 2 min 0,000 mm 0,0 UV-I 127 W/m 2,2 C 10,7 C 22,5 km/h (4 Bft) 91,49 %
11.04.2017 18:54 12,3 C 50 % 1021,1 hPa 0,0 l/m 10,1 km/h (2 Bft) W 267 2 min 0,000 mm 0,0 UV-I 119 W/m 2,2 C 10,1 C 22,5 km/h (4 Bft) 92,68 %
11.04.2017 18:56 12,3 C 50 % 1021,1 hPa 0,0 l/m 6,9 km/h (2 Bft) W-SW 252 2 min 0,000 mm 0,0 UV-I 109 W/m 2,2 C 12,0 C 12,9 km/h (3 Bft) 96,43 %
11.04.2017 18:58 12,2 C 50 % 1021,1 hPa 0,0 l/m 5,5 km/h (1 Bft) W-SW 252 2 min 0,000 mm 0,0 UV-I 103 W/m 2,1 C 12,2 C 12,9 km/h (3 Bft) 87,80 %
11.04.2017 19:00 12,2 C 50 % 1021,1 hPa 0,0 l/m 5,5 km/h (1 Bft) W-SW 256 2 min 0,000 mm 0,0 UV-I 97 W/m 2,1 C 12,2 C 11,3 km/h (2 Bft) 88,00 %
11.04.2017 19:02 12,1 C 50 % 1021,1 hPa 0,0 l/m 7,1 km/h (2 Bft) W 272 2 min 0,127 mm 0,0 UV-I 91 W/m 2,0 C 11,6 C 12,9 km/h (3 Bft) 96,00 %
11.04.2017 19:04 12,1 C 51 % 1021,1 hPa 0,0 l/m 7,8 km/h (2 Bft) W 265 2 min 0,000 mm 0,0 UV-I 76 W/m 2,3 C 11,2 C 12,9 km/h (3 Bft) 92,86 %
11.04.2017 19:06 12,1 C 51 % 1021,1 hPa 0,0 l/m 4,5 km/h (1 Bft) W 271 2 min 0,000 mm 0,0 UV-I 70 W/m 2,3 C 12,1 C 6,4 km/h (2 Bft) 88,46 %
11.04.2017 19:08 12,0 C 51 % 1021,1 hPa 0,0 l/m 2,7 km/h (1 Bft) W-NW 298 2 min 0,000 mm 0,0 UV-I 68 W/m 2,2 C 12,0 C 8,0 km/h (2 Bft) 89,74 %
11.04.2017 19:10 11,9 C 51 % 1021,2 hPa 0,0 l/m 6,3 km/h (2 Bft) W 275 2 min 0,000 mm 0,0 UV-I 63 W/m 2,1 C 11,9 C 11,3 km/h (2 Bft) 94,00 %
11.04.2017 19:12 11,9 C 51 % 1021,2 hPa 0,0 l/m 6,0 km/h (2 Bft) W 267 2 min 0,000 mm 0,0 UV-I 54 W/m 2,1 C 11,9 C 12,9 km/h (3 Bft) 92,00 %
11.04.2017 19:14 11,8 C 52 % 1021,2 hPa 0,0 l/m 7,9 km/h (2 Bft) W-NW 292 2 min 0,000 mm 0,0 UV-I 49 W/m 2,3 C 10,8 C 12,9 km/h (3 Bft) 88,00 %
11.04.2017 19:16 11,7 C 51 % 1021,2 hPa 0,0 l/m 8,8 km/h (2 Bft) W 273 2 min 0,000 mm 0,0 UV-I 43 W/m 1,9 C 10,1 C 16,1 km/h (3 Bft) 97,37 %
11.04.2017 19:18 11,7 C 51 % 1021,2 hPa 0,0 l/m 6,4 km/h (2 Bft) W 279 0 min 0,000 mm 0,0 UV-I 38 W/m 1,9 C 11,7 C 19,3 km/h (3 Bft) 93,62 %
11.04.2017 19:20 11,6 C 52 % 1021,2 hPa 0,0 l/m 5,0 km/h (1 Bft) W 271 2 min 0,000 mm 0,0 UV-I 37 W/m 2,1 C 11,6 C 11,3 km/h (2 Bft) 94,34 %
11.04.2017 19:22 11,5 C 52 % 1021,3 hPa 0,0 l/m 2,9 km/h (1 Bft) W 268 2 min 0,000 mm 0,0 UV-I 38 W/m 2,0 C 11,5 C 4,8 km/h (1 Bft) 94,00 %
11.04.2017 19:24 11,4 C 54 % 1021,3 hPa 0,0 l/m 3,5 km/h (1 Bft) W 261 2 min 0,000 mm 0,0 UV-I 37 W/m 2,4 C 11,4 C 11,3 km/h (2 Bft) 96,15 %
11.04.2017 19:26 11,4 C 52 % 1021,3 hPa 0,0 l/m 6,5 km/h (2 Bft) W 274 2 min 0,000 mm 0,0 UV-I 38 W/m 1,9 C 11,4 C 16,1 km/h (3 Bft) 98,11 %
11.04.2017 19:28 11,4 C 52 % 1021,3 hPa 0,0 l/m 5,2 km/h (1 Bft) W 275 2 min 0,000 mm 0,0 UV-I 33 W/m 1,9 C 11,4 C 11,3 km/h (2 Bft) 94,64 %
11.04.2017 19:30 11,4 C 52 % 1021,4 hPa 0,0 l/m 7,2 km/h (2 Bft) W-SW 248 2 min 0,000 mm 0,0 UV-I 28 W/m 1,9 C 10,9 C 12,9 km/h (3 Bft) 90,00 %
11.04.2017 19:32 11,4 C 52 % 1021,4 hPa 0,0 l/m 8,0 km/h (2 Bft) W-NW 284 2 min 0,000 mm 0,0 UV-I 20 W/m 1,9 C 10,3 C 14,5 km/h (3 Bft) 92,68 %
11.04.2017 19:34 11,4 C 52 % 1021,4 hPa 0,0 l/m 4,4 km/h (1 Bft) W 263 2 min 0,000 mm 0,0 UV-I 15 W/m 1,9 C 11,4 C 8,0 km/h (2 Bft) 96,00 %
11.04.2017 19:36 11,3 C 53 % 1021,4 hPa 0,0 l/m 4,5 km/h (1 Bft) NW 311 2 min 0,000 mm 0,0 UV-I 12 W/m 2,1 C 11,3 C 9,7 km/h (2 Bft) 96,00 %
11.04.2017 19:38 11,3 C 53 % 1021,4 hPa 0,0 l/m 5,1 km/h (1 Bft) W 269 2 min 0,000 mm 0,0 UV-I 12 W/m 2,1 C 11,3 C 11,3 km/h (2 Bft) 95,45 %
11.04.2017 19:40 11,2 C 54 % 1021,4 hPa 0,0 l/m 3,4 km/h (1 Bft) W-NW 286 0 min 0,000 mm 0,0 UV-I 12 W/m 2,2 C 11,2 C 9,7 km/h (2 Bft) 98,00 %
11.04.2017 19:42 11,0 C 55 % 1021,4 hPa 0,0 l/m 0,9 km/h (0 Bft) W-NW 286 0 min 0,000 mm 0,0 UV-I 10 W/m 2,3 C 11,0 C 1,6 km/h (1 Bft) 95,24 %
11.04.2017 19:44 10,9 C 56 % 1021,4 hPa 0,0 l/m 2,9 km/h (1 Bft) W-NW 286 0 min 0,000 mm 0,0 UV-I 9 W/m 2,5 C 10,9 C 4,8 km/h (1 Bft) 97,56 %
11.04.2017 19:46 10,8 C 55 % 1021,4 hPa 0,0 l/m 3,1 km/h (1 Bft) W-NW 286 0 min 0,000 mm 0,0 UV-I 8 W/m 2,1 C 10,8 C 4,8 km/h (1 Bft) 96,23 %
11.04.2017 19:48 10,7 C 55 % 1021,5 hPa 0,0 l/m 2,5 km/h (1 Bft) W-NW 286 0 min 0,000 mm 0,0 UV-I 7 W/m 2,0 C 10,7 C 3,2 km/h (1 Bft) 94,00 %
11.04.2017 19:50 10,7 C 55 % 1021,5 hPa 0,0 l/m 3,5 km/h (1 Bft) W-NW 287 0 min 0,000 mm 0,0 UV-I 7 W/m 2,0 C 10,7 C 6,4 km/h (2 Bft) 100,00 %
11.04.2017 19:52 10,6 C 55 % 1021,6 hPa 0,0 l/m 3,5 km/h (1 Bft) W-NW 286 0 min 0,000 mm 0,0 UV-I 5 W/m 1,9 C 10,6 C 4,8 km/h (1 Bft) 98,21 %
11.04.2017 19:54 10,6 C 56 % 1021,6 hPa 0,0 l/m 3,3 km/h (1 Bft) W-NW 286 0 min 0,000 mm 0,0 UV-I 5 W/m 2,2 C 10,6 C 6,4 km/h (2 Bft) 100,00 %
11.04.2017 19:56 10,4 C 56 % 1021,6 hPa 0,0 l/m 4,3 km/h (1 Bft) W-NW 288 0 min 0,000 mm 0,0 UV-I 5 W/m 2,0 C 10,4 C 9,7 km/h (2 Bft) 100,00 %
11.04.2017 19:58 10,4 C 56 % 1021,6 hPa 0,0 l/m 5,8 km/h (2 Bft) W 260 0 min 0,000 mm 0,0 UV-I 5 W/m 2,0 C 10,4 C 12,9 km/h (3 Bft) 95,45 %
11.04.2017 20:00 10,4 C 56 % 1021,6 hPa 0,0 l/m 4,8 km/h (1 Bft) W-SW 252 0 min 0,000 mm 0,0 UV-I 5 W/m 2,0 C 10,4 C 11,3 km/h (2 Bft) 100,00 %
11.04.2017 20:02 10,4 C 56 % 1021,6 hPa 0,0 l/m 3,6 km/h (1 Bft) W 270 0 min 0,051 mm 0,0 UV-I 0 W/m 2,0 C 10,4 C 6,4 km/h (2 Bft) 97,56 %
11.04.2017 20:04 10,3 C 56 % 1021,7 hPa 0,0 l/m 7,1 km/h (2 Bft) W 263 0 min 0,000 mm 0,0 UV-I 0 W/m 1,9 C 9,8 C 12,9 km/h (3 Bft) 100,00 %
11.04.2017 20:06 10,3 C 56 % 1021,7 hPa 0,0 l/m 4,6 km/h (1 Bft) W 265 0 min 0,000 mm 0,0 UV-I 0 W/m 1,9 C 10,3 C 9,7 km/h (2 Bft) 100,00 %
11.04.2017 20:08 10,3 C 56 % 1021,7 hPa 0,0 l/m 7,2 km/h (2 Bft) W 259 0 min 0,000 mm 0,0 UV-I 0 W/m 1,9 C 9,7 C 11,3 km/h (2 Bft) 98,11 %
11.04.2017 20:10 10,4 C 56 % 1021,8 hPa 0,0 l/m 4,8 km/h (1 Bft) W 281 0 min 0,000 mm 0,0 UV-I 0 W/m 2,0 C 10,4 C 9,7 km/h (2 Bft) 95,12 %
11.04.2017 20:12 10,4 C 56 % 1021,8 hPa 0,0 l/m 5,8 km/h (2 Bft) W-SW 255 0 min 0,000 mm 0,0 UV-I 0 W/m 2,0 C 10,4 C 9,7 km/h (2 Bft) 98,00 %
11.04.2017 20:14 10,3 C 56 % 1021,8 hPa 0,0 l/m 7,1 km/h (2 Bft) W 260 0 min 0,000 mm 0,0 UV-I 0 W/m 1,9 C 9,8 C 11,3 km/h (2 Bft) 95,74 %
11.04.2017 20:16 10,4 C 56 % 1021,9 hPa 0,0 l/m 5,6 km/h (1 Bft) W 268 0 min 0,000 mm 0,0 UV-I 0 W/m 2,0 C 10,4 C 9,7 km/h (2 Bft) 95,45 %
11.04.2017 20:18 10,4 C 56 % 1021,8 hPa 0,0 l/m 5,5 km/h (1 Bft) W 269 0 min 0,000 mm 0,0 UV-I 0 W/m 2,0 C 10,4 C 9,7 km/h (2 Bft) 98,00 %
11.04.2017 20:20 10,3 C 56 % 1021,9 hPa 0,0 l/m 4,9 km/h (1 Bft) W 270 0 min 0,000 mm 0,0 UV-I 0 W/m 1,9 C 10,3 C 6,4 km/h (2 Bft) 98,00 %
11.04.2017 20:22 10,3 C 56 % 1021,8 hPa 0,0 l/m 5,7 km/h (1 Bft) W 275 0 min 0,000 mm 0,0 UV-I 0 W/m 1,9 C 10,3 C 9,7 km/h (2 Bft) 100,00 %
11.04.2017 20:24 10,2 C 56 % 1021,9 hPa 0,0 l/m 6,6 km/h (2 Bft) W-SW 254 0 min 0,000 mm 0,0 UV-I 0 W/m 1,8 C 10,1 C 11,3 km/h (2 Bft) 90,00 %
11.04.2017 20:26 10,2 C 56 % 1022,0 hPa 0,0 l/m 7,5 km/h (2 Bft) W 277 0 min 0,000 mm 0,0 UV-I 0 W/m 1,8 C 9,4 C 11,3 km/h (2 Bft) 97,56 %
11.04.2017 20:28 10,2 C 56 % 1022,0 hPa 0,0 l/m 6,1 km/h (2 Bft) W 262 0 min 0,000 mm 0,0 UV-I 0 W/m 1,8 C 10,2 C 11,3 km/h (2 Bft) 96,23 %
11.04.2017 20:30 10,2 C 56 % 1022,0 hPa 0,0 l/m 4,1 km/h (1 Bft) W 275 0 min 0,000 mm 0,0 UV-I 0 W/m 1,8 C 10,2 C 6,4 km/h (2 Bft) 98,00 %
11.04.2017 20:32 10,2 C 56 % 1022,0 hPa 0,0 l/m 5,4 km/h (1 Bft) W 280 0 min 0,000 mm 0,0 UV-I 0 W/m 1,8 C 10,2 C 11,3 km/h (2 Bft) 94,74 %
11.04.2017 20:34 10,1 C 56 % 1022,0 hPa 0,0 l/m 5,0 km/h (1 Bft) W 267 0 min 0,000 mm 0,0 UV-I 0 W/m 1,7 C 10,1 C 6,4 km/h (2 Bft) 93,18 %
11.04.2017 20:36 10,1 C 57 % 1022,1 hPa 0,0 l/m 5,2 km/h (1 Bft) W 270 0 min 0,000 mm 0,0 UV-I 0 W/m 2,0 C 10,1 C 6,4 km/h (2 Bft) 92,45 %
11.04.2017 20:38 10,0 C 57 % 1022,1 hPa 0,0 l/m 4,6 km/h (1 Bft) W 270 0 min 0,000 mm 0,0 UV-I 0 W/m 1,9 C 10,0 C 6,4 km/h (2 Bft) 100,00 %
11.04.2017 20:40 10,0 C 56 % 1022,1 hPa 0,0 l/m 5,5 km/h (1 Bft) W 260 0 min 0,000 mm 0,0 UV-I 0 W/m 1,6 C 10,0 C 6,4 km/h (2 Bft) 96,23 %
11.04.2017 20:42 10,0 C 56 % 1022,1 hPa 0,0 l/m 4,6 km/h (1 Bft) W 260 0 min 0,000 mm 0,0 UV-I 0 W/m 1,6 C 10,0 C 4,8 km/h (1 Bft) 98,00 %
11.04.2017 20:44 10,0 C 57 % 1022,2 hPa 0,0 l/m 4,8 km/h (1 Bft) W 260 0 min 0,000 mm 0,0 UV-I 0 W/m 1,9 C 10,0 C 6,4 km/h (2 Bft) 97,37 %
11.04.2017 20:46 9,9 C 56 % 1022,2 hPa 0,0 l/m 5,0 km/h (1 Bft) W 260 0 min 0,000 mm 0,0 UV-I 0 W/m 1,5 C 9,9 C 6,4 km/h (2 Bft) 90,00 %
11.04.2017 20:48 9,9 C 57 % 1022,2 hPa 0,0 l/m 5,0 km/h (1 Bft) W 261 0 min 0,000 mm 0,0 UV-I 0 W/m 1,8 C 9,9 C 6,4 km/h (2 Bft) 100,00 %
11.04.2017 20:50 9,9 C 57 % 1022,2 hPa 0,0 l/m 4,7 km/h (1 Bft) W 261 0 min 0,000 mm 0,0 UV-I 0 W/m 1,8 C 9,9 C 6,4 km/h (2 Bft) 96,00 %
11.04.2017 20:52 9,8 C 57 % 1022,3 hPa 0,0 l/m 4,0 km/h (1 Bft) W 261 0 min 0,000 mm 0,0 UV-I 0 W/m 1,7 C 9,8 C 6,4 km/h (2 Bft) 88,57 %
11.04.2017 20:54 9,8 C 58 % 1022,4 hPa 0,0 l/m 4,2 km/h (1 Bft) W 261 0 min 0,000 mm 0,0 UV-I 0 W/m 1,9 C 9,8 C 6,4 km/h (2 Bft) 94,64 %
11.04.2017 20:56 9,8 C 58 % 1022,4 hPa 0,0 l/m 3,7 km/h (1 Bft) W 261 0 min 0,000 mm 0,0 UV-I 0 W/m 1,9 C 9,8 C 4,8 km/h (1 Bft) 96,67 %
11.04.2017 20:58 9,7 C 59 % 1022,4 hPa 0,0 l/m 3,9 km/h (1 Bft) W 261 0 min 0,000 mm 0,0 UV-I 0 W/m 2,1 C 9,7 C 6,4 km/h (2 Bft) 95,31 %
11.04.2017 21:00 9,6 C 59 % 1022,3 hPa 0,0 l/m 3,9 km/h (1 Bft) W 261 0 min 0,025 mm 0,0 UV-I 0 W/m 2,0 C 9,6 C 4,8 km/h (1 Bft) 93,62 %
11.04.2017 21:02 9,6 C 59 % 1022,4 hPa 0,0 l/m 3,6 km/h (1 Bft) W 261 0 min 0,000 mm 0,0 UV-I 0 W/m 2,0 C 9,6 C 4,8 km/h (1 Bft) 97,44 %
11.04.2017 21:04 9,5 C 59 % 1022,4 hPa 0,0 l/m 3,5 km/h (1 Bft) W 261 0 min 0,000 mm 0,0 UV-I 0 W/m 1,9 C 9,5 C 4,8 km/h (1 Bft) 96,23 %
11.04.2017 21:06 9,4 C 59 % 1022,4 hPa 0,0 l/m 3,1 km/h (1 Bft) W 261 0 min 0,000 mm 0,0 UV-I 0 W/m 1,8 C 9,4 C 4,8 km/h (1 Bft) 94,00 %
11.04.2017 21:08 9,4 C 59 % 1022,4 hPa 0,0 l/m 3,7 km/h (1 Bft) W 261 0 min 0,000 mm 0,0 UV-I 0 W/m 1,8 C 9,4 C 6,4 km/h (2 Bft) 96,00 %
11.04.2017 21:10 9,4 C 59 % 1022,5 hPa 0,0 l/m 2,6 km/h (1 Bft) W 261 0 min 0,000 mm 0,0 UV-I 0 W/m 1,8 C 9,4 C 4,8 km/h (1 Bft) 95,45 %
11.04.2017 21:12 9,3 C 60 % 1022,5 hPa 0,0 l/m 2,7 km/h (1 Bft) W 261 0 min 0,000 mm 0,0 UV-I 0 W/m 1,9 C 9,3 C 4,8 km/h (1 Bft) 98,00 %
11.04.2017 21:14 9,3 C 61 % 1022,5 hPa 0,0 l/m 3,5 km/h (1 Bft) W 260 0 min 0,000 mm 0,0 UV-I 0 W/m 2,2 C 9,3 C 4,8 km/h (1 Bft) 92,68 %
11.04.2017 21:16 9,2 C 62 % 1022,5 hPa 0,0 l/m 4,0 km/h (1 Bft) W 260 0 min 0,000 mm 0,0 UV-I 0 W/m 2,3 C 9,2 C 6,4 km/h (2 Bft) 96,00 %
11.04.2017 21:18 9,0 C 63 % 1022,6 hPa 0,0 l/m 5,0 km/h (1 Bft) W-SW 241 0 min 0,000 mm 0,0 UV-I 0 W/m 2,3 C 9,0 C 6,4 km/h (2 Bft) 97,73 %
11.04.2017 21:20 8,9 C 63 % 1022,6 hPa 0,0 l/m 5,0 km/h (1 Bft) W-SW 240 0 min 0,000 mm 0,0 UV-I 0 W/m 2,2 C 8,9 C 6,4 km/h (2 Bft) 95,12 %
11.04.2017 21:22 8,8 C 64 % 1022,6 hPa 0,0 l/m 6,1 km/h (2 Bft) SW 223 0 min 0,000 mm 0,0 UV-I 0 W/m 2,4 C 8,8 C 8,0 km/h (2 Bft) 94,34 %
11.04.2017 21:24 8,7 C 64 % 1022,6 hPa 0,0 l/m 5,6 km/h (1 Bft) SW 221 0 min 0,000 mm 0,0 UV-I 0 W/m 2,3 C 8,7 C 8,0 km/h (2 Bft) 93,10 %
11.04.2017 21:26 8,6 C 65 % 1022,6 hPa 0,0 l/m 4,3 km/h (1 Bft) SW 220 0 min 0,000 mm 0,0 UV-I 0 W/m 2,4 C 8,6 C 6,4 km/h (2 Bft) 94,92 %
11.04.2017 21:28 8,4 C 66 % 1022,6 hPa 0,0 l/m 4,8 km/h (1 Bft) S-SW 211 0 min 0,000 mm 0,0 UV-I 0 W/m 2,4 C 8,4 C 9,7 km/h (2 Bft) 96,00 %
11.04.2017 21:30 8,4 C 66 % 1022,6 hPa 0,0 l/m 4,8 km/h (1 Bft) SW 215 0 min 0,000 mm 0,0 UV-I 0 W/m 2,4 C 8,4 C 8,0 km/h (2 Bft) 96,67 %
11.04.2017 21:32 8,3 C 66 % 1022,6 hPa 0,0 l/m 6,3 km/h (2 Bft) SW 220 0 min 0,000 mm 0,0 UV-I 0 W/m 2,3 C 8,3 C 9,7 km/h (2 Bft) 93,75 %
11.04.2017 21:34 8,4 C 66 % 1022,6 hPa 0,0 l/m 7,5 km/h (2 Bft) SW 220 0 min 0,000 mm 0,0 UV-I 0 W/m 2,4 C 7,5 C 11,3 km/h (2 Bft) 96,23 %
11.04.2017 21:36 8,4 C 66 % 1022,7 hPa 0,0 l/m 7,0 km/h (2 Bft) SW 225 0 min 0,000 mm 0,0 UV-I 0 W/m 2,4 C 7,9 C 9,7 km/h (2 Bft) 97,37 %
11.04.2017 21:38 8,4 C 66 % 1022,7 hPa 0,0 l/m 6,1 km/h (2 Bft) SW 228 0 min 0,000 mm 0,0 UV-I 0 W/m 2,4 C 8,4 C 8,0 km/h (2 Bft) 96,43 %
11.04.2017 21:40 8,4 C 66 % 1022,7 hPa 0,0 l/m 5,8 km/h (2 Bft) SW 221 0 min 0,000 mm 0,0 UV-I 0 W/m 2,4 C 8,4 C 9,7 km/h (2 Bft) 100,00 %
11.04.2017 21:42 8,4 C 66 % 1022,7 hPa 0,0 l/m 6,0 km/h (2 Bft) SW 227 0 min 0,000 mm 0,0 UV-I 0 W/m 2,4 C 8,4 C 8,0 km/h (2 Bft) 100,00 %
11.04.2017 21:44 8,4 C 66 % 1022,8 hPa 0,0 l/m 6,9 km/h (2 Bft) SW 219 0 min 0,000 mm 0,0 UV-I 0 W/m 2,4 C 8,0 C 8,0 km/h (2 Bft) 100,00 %
11.04.2017 21:46 8,5 C 65 % 1022,7 hPa 0,0 l/m 6,7 km/h (2 Bft) SW 227 0 min 0,000 mm 0,0 UV-I 0 W/m 2,3 C 8,3 C 9,7 km/h (2 Bft) 98,00 %
11.04.2017 21:48 8,6 C 65 % 1022,7 hPa 0,0 l/m 5,4 km/h (1 Bft) SW 228 0 min 0,000 mm 0,0 UV-I 0 W/m 2,4 C 8,6 C 8,0 km/h (2 Bft) 95,12 %
11.04.2017 21:50 8,6 C 65 % 1022,7 hPa 0,0 l/m 5,9 km/h (2 Bft) SW 224 0 min 0,000 mm 0,0 UV-I 0 W/m 2,4 C 8,6 C 9,7 km/h (2 Bft) 97,56 %
11.04.2017 21:52 8,6 C 65 % 1022,7 hPa 0,0 l/m 5,8 km/h (2 Bft) SW 217 0 min 0,000 mm 0,0 UV-I 0 W/m 2,4 C 8,6 C 8,0 km/h (2 Bft) 96,23 %
11.04.2017 21:54 8,5 C 66 % 1022,7 hPa 0,0 l/m 5,9 km/h (2 Bft) SW 234 0 min 0,000 mm 0,0 UV-I 0 W/m 2,5 C 8,5 C 8,0 km/h (2 Bft) 98,04 %
11.04.2017 21:56 8,5 C 66 % 1022,8 hPa 0,0 l/m 5,9 km/h (2 Bft) SW 230 0 min 0,000 mm 0,0 UV-I 0 W/m 2,5 C 8,5 C 8,0 km/h (2 Bft) 100,00 %
11.04.2017 21:58 8,5 C 66 % 1022,7 hPa 0,0 l/m 5,5 km/h (1 Bft) SW 222 0 min 0,000 mm 0,0 UV-I 0 W/m 2,5 C 8,5 C 8,0 km/h (2 Bft) 92,45 %
11.04.2017 22:00 8,4 C 66 % 1022,7 hPa 0,0 l/m 5,6 km/h (1 Bft) SW 221 0 min 0,000 mm 0,0 UV-I 0 W/m 2,4 C 8,4 C 6,4 km/h (2 Bft) 96,00 %
11.04.2017 22:02 8,3 C 67 % 1022,8 hPa 0,0 l/m 4,9 km/h (1 Bft) SW 221 0 min 0,026 mm 0,0 UV-I 0 W/m 2,5 C 8,3 C 6,4 km/h (2 Bft) 97,37 %
11.04.2017 22:04 8,2 C 68 % 1022,7 hPa 0,0 l/m 5,2 km/h (1 Bft) SW 221 0 min 0,000 mm 0,0 UV-I 0 W/m 2,7 C 8,2 C 8,0 km/h (2 Bft) 98,11 %
11.04.2017 22:06 8,1 C 68 % 1022,7 hPa 0,0 l/m 5,3 km/h (1 Bft) SW 221 0 min 0,000 mm 0,0 UV-I 0 W/m 2,6 C 8,1 C 6,4 km/h (2 Bft) 100,00 %
11.04.2017 22:08 8,1 C 68 % 1022,7 hPa 0,0 l/m 5,0 km/h (1 Bft) SW 220 0 min 0,000 mm 0,0 UV-I 0 W/m 2,6 C 8,1 C 6,4 km/h (2 Bft) 97,67 %
11.04.2017 22:10 7,9 C 69 % 1022,7 hPa 0,0 l/m 5,0 km/h (1 Bft) SW 220 0 min 0,000 mm 0,0 UV-I 0 W/m 2,6 C 7,9 C 8,0 km/h (2 Bft) 100,00 %
11.04.2017 22:12 7,8 C 70 % 1022,7 hPa 0,0 l/m 5,5 km/h (1 Bft) SW 220 0 min 0,000 mm 0,0 UV-I 0 W/m 2,7 C 7,8 C 8,0 km/h (2 Bft) 97,87 %
11.04.2017 22:14 7,7 C 70 % 1022,7 hPa 0,0 l/m 5,6 km/h (1 Bft) SW 219 0 min 0,000 mm 0,0 UV-I 0 W/m 2,6 C 7,7 C 8,0 km/h (2 Bft) 97,87 %
11.04.2017 22:16 7,6 C 71 % 1022,7 hPa 0,0 l/m 7,0 km/h (2 Bft) SW 215 0 min 0,000 mm 0,0 UV-I 0 W/m 2,7 C 7,1 C 8,0 km/h (2 Bft) 100,00 %
11.04.2017 22:18 7,6 C 71 % 1022,7 hPa 0,0 l/m 6,8 km/h (2 Bft) SW 218 0 min 0,000 mm 0,0 UV-I 0 W/m 2,7 C 7,3 C 9,7 km/h (2 Bft) 100,00 %
11.04.2017 22:20 7,6 C 71 % 1022,7 hPa 0,0 l/m 6,3 km/h (2 Bft) SW 219 0 min 0,000 mm 0,0 UV-I 0 W/m 2,7 C 7,6 C 8,0 km/h (2 Bft) 100,00 %
11.04.2017 22:23 7,7 C 71 % 1022,7 hPa 0,0 l/m 5,7 km/h (1 Bft) SW 221 0 min 0,000 mm 0,0 UV-I 0 W/m 2,8 C 7,7 C 8,0 km/h (2 Bft) 100,00 %
11.04.2017 22:24 7,7 C 71 % 1022,7 hPa 0,0 l/m 5,3 km/h (1 Bft) SW 221 0 min 0,000 mm 0,0 UV-I 0 W/m 2,8 C 7,7 C 8,0 km/h (2 Bft) 95,83 %
11.04.2017 22:26 7,8 C 70 % 1022,7 hPa 0,0 l/m 7,1 km/h (2 Bft) S-SW 206 0 min 0,000 mm 0,0 UV-I 0 W/m 2,7 C 7,2 C 9,7 km/h (2 Bft) 100,00 %
11.04.2017 22:28 7,9 C 70 % 1022,7 hPa 0,0 l/m 8,4 km/h (2 Bft) S-SW 208 0 min 0,000 mm 0,0 UV-I 0 W/m 2,8 C 6,4 C 12,9 km/h (3 Bft) 98,00 %
11.04.2017 22:30 7,9 C 70 % 1022,6 hPa 0,0 l/m 6,4 km/h (2 Bft) SW 217 0 min 0,000 mm 0,0 UV-I 0 W/m 2,8 C 7,9 C 8,0 km/h (2 Bft) 100,00 %
11.04.2017 22:32 7,8 C 70 % 1022,6 hPa 0,0 l/m 5,9 km/h (2 Bft) SW 217 0 min 0,000 mm 0,0 UV-I 0 W/m 2,7 C 7,8 C 8,0 km/h (2 Bft) 97,73 %
11.04.2017 22:34 7,8 C 70 % 1022,5 hPa 0,0 l/m 5,2 km/h (1 Bft) SW 225 0 min 0,000 mm 0,0 UV-I 0 W/m 2,7 C 7,8 C 8,0 km/h (2 Bft) 96,23 %
11.04.2017 22:36 7,8 C 70 % 1022,6 hPa 0,0 l/m 5,6 km/h (1 Bft) SW 221 0 min 0,000 mm 0,0 UV-I 0 W/m 2,7 C 7,8 C 8,0 km/h (2 Bft) 96,00 %
11.04.2017 22:38 7,8 C 70 % 1022,5 hPa 0,0 l/m 5,4 km/h (1 Bft) SW 220 0 min 0,000 mm 0,0 UV-I 0 W/m 2,7 C 7,8 C 6,4 km/h (2 Bft) 96,00 %
11.04.2017 22:40 7,7 C 71 % 1022,5 hPa 0,0 l/m 6,4 km/h (2 Bft) SW 219 0 min 0,000 mm 0,0 UV-I 0 W/m 2,8 C 7,7 C 9,7 km/h (2 Bft) 97,37 %
11.04.2017 22:42 7,7 C 71 % 1022,5 hPa 0,0 l/m 5,2 km/h (1 Bft) SW 219 0 min 0,000 mm 0,0 UV-I 0 W/m 2,8 C 7,7 C 8,0 km/h (2 Bft) 96,00 %
11.04.2017 22:44 7,7 C 71 % 1022,6 hPa 0,0 l/m 5,7 km/h (1 Bft) SW 219 0 min 0,000 mm 0,0 UV-I 0 W/m 2,8 C 7,7 C 8,0 km/h (2 Bft) 93,62 %
11.04.2017 22:46 7,7 C 71 % 1022,5 hPa 0,0 l/m 5,5 km/h (1 Bft) SW 218 0 min 0,000 mm 0,0 UV-I 0 W/m 2,8 C 7,7 C 6,4 km/h (2 Bft) 97,87 %
11.04.2017 22:48 7,6 C 72 % 1022,5 hPa 0,0 l/m 5,7 km/h (1 Bft) SW 219 0 min 0,000 mm 0,0 UV-I 0 W/m 2,9 C 7,6 C 8,0 km/h (2 Bft) 95,74 %
11.04.2017 22:50 7,5 C 72 % 1022,6 hPa 0,0 l/m 5,3 km/h (1 Bft) SW 220 0 min 0,000 mm 0,0 UV-I 0 W/m 2,8 C 7,5 C 6,4 km/h (2 Bft) 97,83 %
11.04.2017 22:52 7,4 C 72 % 1022,5 hPa 0,0 l/m 5,6 km/h (1 Bft) SW 220 0 min 0,000 mm 0,0 UV-I 0 W/m 2,7 C 7,4 C 8,0 km/h (2 Bft) 96,00 %
11.04.2017 22:54 7,4 C 73 % 1022,5 hPa 0,0 l/m 5,9 km/h (2 Bft) SW 217 0 min 0,000 mm 0,0 UV-I 0 W/m 2,9 C 7,4 C 8,0 km/h (2 Bft) 97,22 %
11.04.2017 22:56 7,3 C 73 % 1022,5 hPa 0,0 l/m 5,9 km/h (2 Bft) SW 217 0 min 0,000 mm 0,0 UV-I 0 W/m 2,8 C 7,3 C 8,0 km/h (2 Bft) 96,55 %
11.04.2017 22:58 7,2 C 73 % 1022,5 hPa 0,0 l/m 4,7 km/h (1 Bft) SW 217 0 min 0,000 mm 0,0 UV-I 0 W/m 2,7 C 7,2 C 6,4 km/h (2 Bft) 93,62 %
11.04.2017 23:00 7,1 C 74 % 1022,5 hPa 0,0 l/m 5,7 km/h (1 Bft) SW 217 0 min 0,000 mm 0,0 UV-I 0 W/m 2,8 C 7,1 C 8,0 km/h (2 Bft) 97,62 %
11.04.2017 23:02 7,1 C 74 % 1022,5 hPa 0,0 l/m 5,3 km/h (1 Bft) SW 217 0 min 0,025 mm 0,0 UV-I 0 W/m 2,8 C 7,1 C 8,0 km/h (2 Bft) 97,37 %
11.04.2017 23:04 7,0 C 74 % 1022,5 hPa 0,0 l/m 3,6 km/h (1 Bft) SW 217 0 min 0,000 mm 0,0 UV-I 0 W/m 2,7 C 7,0 C 4,8 km/h (1 Bft) 94,00 %
11.04.2017 23:06 6,9 C 74 % 1022,5 hPa 0,0 l/m 4,4 km/h (1 Bft) SW 217 0 min 0,000 mm 0,0 UV-I 0 W/m 2,6 C 6,9 C 6,4 km/h (2 Bft) 94,92 %
11.04.2017 23:08 6,9 C 74 % 1022,5 hPa 0,0 l/m 4,4 km/h (1 Bft) SW 216 0 min 0,000 mm 0,0 UV-I 0 W/m 2,6 C 6,9 C 8,0 km/h (2 Bft) 95,74 %
11.04.2017 23:10 6,9 C 75 % 1022,4 hPa 0,0 l/m 6,8 km/h (2 Bft) S-SW 209 0 min 0,000 mm 0,0 UV-I 0 W/m 2,8 C 6,6 C 9,7 km/h (2 Bft) 92,68 %
11.04.2017 23:12 6,9 C 75 % 1022,4 hPa 0,0 l/m 7,2 km/h (2 Bft) S-SW 212 0 min 0,000 mm 0,0 UV-I 0 W/m 2,8 C 6,2 C 9,7 km/h (2 Bft) 96,00 %
11.04.2017 23:14 7,1 C 75 % 1022,5 hPa 0,0 l/m 7,2 km/h (2 Bft) S-SW 209 0 min 0,000 mm 0,0 UV-I 0 W/m 3,0 C 6,4 C 9,7 km/h (2 Bft) 91,49 %
11.04.2017 23:16 7,2 C 74 % 1022,5 hPa 0,0 l/m 5,6 km/h (1 Bft) S-SW 211 0 min 0,000 mm 0,0 UV-I 0 W/m 2,9 C 7,2 C 6,4 km/h (2 Bft) 93,18 %
11.04.2017 23:18 7,2 C 74 % 1022,4 hPa 0,0 l/m 5,5 km/h (1 Bft) S-SW 211 0 min 0,000 mm 0,0 UV-I 0 W/m 2,9 C 7,2 C 8,0 km/h (2 Bft) 92,68 %
11.04.2017 23:20 7,1 C 74 % 1022,5 hPa 0,0 l/m 5,0 km/h (1 Bft) S-SW 211 0 min 0,000 mm 0,0 UV-I 0 W/m 2,8 C 7,1 C 8,0 km/h (2 Bft) 90,00 %
11.04.2017 23:22 7,1 C 75 % 1022,5 hPa 0,0 l/m 5,1 km/h (1 Bft) S-SW 211 0 min 0,000 mm 0,0 UV-I 0 W/m 3,0 C 7,1 C 8,0 km/h (2 Bft) 94,34 %
11.04.2017 23:24 7,1 C 75 % 1022,5 hPa 0,0 l/m 4,8 km/h (1 Bft) S-SW 211 0 min 0,000 mm 0,0 UV-I 0 W/m 3,0 C 7,1 C 6,4 km/h (2 Bft) 94,74 %
11.04.2017 23:26 7,1 C 75 % 1022,5 hPa 0,0 l/m 4,2 km/h (1 Bft) S-SW 211 0 min 0,000 mm 0,0 UV-I 0 W/m 3,0 C 7,1 C 6,4 km/h (2 Bft) 94,00 %
11.04.2017 23:28 7,0 C 75 % 1022,5 hPa 0,0 l/m 3,1 km/h (1 Bft) S-SW 211 0 min 0,000 mm 0,0 UV-I 0 W/m 2,9 C 7,0 C 4,8 km/h (1 Bft) 94,00 %
11.04.2017 23:30 7,0 C 75 % 1022,5 hPa 0,0 l/m 2,7 km/h (1 Bft) S-SW 211 0 min 0,000 mm 0,0 UV-I 0 W/m 2,9 C 7,0 C 4,8 km/h (1 Bft) 95,12 %
11.04.2017 23:32 7,0 C 75 % 1022,5 hPa 0,0 l/m 5,2 km/h (1 Bft) S-SW 211 0 min 0,000 mm 0,0 UV-I 0 W/m 2,9 C 7,0 C 8,0 km/h (2 Bft) 94,87 %
11.04.2017 23:34 7,0 C 75 % 1022,4 hPa 0,0 l/m 5,8 km/h (2 Bft) S-SW 209 0 min 0,000 mm 0,0 UV-I 0 W/m 2,9 C 7,0 C 8,0 km/h (2 Bft) 96,23 %
11.04.2017 23:36 7,1 C 75 % 1022,4 hPa 0,0 l/m 5,4 km/h (1 Bft) S-SW 208 0 min 0,000 mm 0,0 UV-I 0 W/m 3,0 C 7,1 C 8,0 km/h (2 Bft) 94,23 %
11.04.2017 23:38 7,1 C 75 % 1022,4 hPa 0,0 l/m 4,5 km/h (1 Bft) S-SW 208 0 min 0,000 mm 0,0 UV-I 0 W/m 3,0 C 7,1 C 8,0 km/h (2 Bft) 98,00 %
11.04.2017 23:40 7,1 C 75 % 1022,4 hPa 0,0 l/m 4,9 km/h (1 Bft) S-SW 208 0 min 0,000 mm 0,0 UV-I 0 W/m 3,0 C 7,1 C 6,4 km/h (2 Bft) 96,00 %
11.04.2017 23:42 7,1 C 75 % 1022,3 hPa 0,0 l/m 4,2 km/h (1 Bft) S-SW 207 0 min 0,000 mm 0,0 UV-I 0 W/m 3,0 C 7,1 C 8,0 km/h (2 Bft) 100,00 %
11.04.2017 23:44 7,0 C 76 % 1022,3 hPa 0,0 l/m 3,4 km/h (1 Bft) S-SW 207 0 min 0,000 mm 0,0 UV-I 0 W/m 3,1 C 7,0 C 6,4 km/h (2 Bft) 100,00 %
11.04.2017 23:46 7,1 C 76 % 1022,3 hPa 0,0 l/m 5,3 km/h (1 Bft) S-SW 205 0 min 0,000 mm 0,0 UV-I 0 W/m 3,2 C 7,1 C 8,0 km/h (2 Bft) 97,87 %
11.04.2017 23:48 7,1 C 76 % 1022,3 hPa 0,0 l/m 4,2 km/h (1 Bft) S-SW 203 0 min 0,000 mm 0,0 UV-I 0 W/m 3,2 C 7,1 C 6,4 km/h (2 Bft) 100,00 %
11.04.2017 23:50 7,1 C 77 % 1022,3 hPa 0,0 l/m 3,3 km/h (1 Bft) S-SW 198 0 min 0,000 mm 0,0 UV-I 0 W/m 3,3 C 7,1 C 6,4 km/h (2 Bft) 98,00 %
11.04.2017 23:52 7,1 C 77 % 1022,3 hPa 0,0 l/m 4,0 km/h (1 Bft) S-SW 201 0 min 0,000 mm 0,0 UV-I 0 W/m 3,3 C 7,1 C 8,0 km/h (2 Bft) 97,87 %
11.04.2017 23:54 7,1 C 77 % 1022,4 hPa 0,0 l/m 4,6 km/h (1 Bft) S-SW 201 0 min 0,000 mm 0,0 UV-I 0 W/m 3,3 C 7,1 C 6,4 km/h (2 Bft) 92,11 %
11.04.2017 23:56 7,1 C 77 % 1022,4 hPa 0,0 l/m 3,2 km/h (1 Bft) S-SW 201 0 min 0,000 mm 0,0 UV-I 0 W/m 3,3 C 7,1 C 4,8 km/h (1 Bft) 98,00 %
11.04.2017 23:58 7,1 C 77 % 1022,4 hPa 0,0 l/m 3,5 km/h (1 Bft) S-SW 200 0 min 0,000 mm 0,0 UV-I 0 W/m 3,3 C 7,1 C 6,4 km/h (2 Bft) 100,00 %
_ Min-Zeit 23:04 15:36 00:14 - 03:12 - - - - - - 20:46 09:56 03:12 11:58
Minimum _ 6,9 C 47 % 1013,6 hPa - 0,0 km/h (0 Bft) - - - - - - 1,5 C 4,1 C 0,0 km/h (0 Bft) 86,00 %
_ Max-Zeit 01:38 06:24 21:44 02:42 11:52 - - 11:49 13:00 13:02 11:40 04:54 01:48 13:02 01:40
Maximum _ 14,9 C 85 % 1022,8 hPa 0,2 l/m 24,8 km/h
W-SW (4 Bft)
- - 3 min 0,457 mm 3,9 UV-I 953 W/m 9,6 C 14,9 C 41,8 km/h
W-SW (6 Bft)
100,00 %
Durchschnitt _ 11,5 C 64 % 1019,5 hPa #0,2 l/m 10,6 km/h (2 Bft) W - #8:42 h #3,429 mm 2,1 UV-I 352 W/m 4,7 C 9,0 C 17,5 km/h (3 Bft) 96,59 %